| time (UTC) | temp F | wind direction | speed knots | gust knots | rain 1hr in | rain 24hr in | rain mn in | humidity % | barometer mb |
| 20260906044813 | 57 | 292 | 0.0 | 0.0 | 0.00 | 0.00 | 0.00 | 78 | 1070.1 |
| 20260906044700 | 57 | 292 | 0.0 | 0.0 | 0.00 | 0.00 | 0.00 | 78 | 1070.1 |
| 20260906044554 | 57 | 292 | 0.0 | 0.0 | 0.00 | 0.00 | 0.00 | 78 | 1070.1 |
| 20260906044440 | 57 | 292 | 0.0 | 0.0 | 0.00 | 0.00 | 0.00 | 78 | 1070.1 |
| 20260906044320 | 57 | 292 | 0.0 | 0.0 | 0.00 | 0.00 | 0.00 | 78 | 1070.1 |
| 20260906044209 | 57 | 270 | 0.0 | 0.0 | 0.00 | 0.00 | 0.00 | 77 | 1070.1 |
| 20260906044103 | 57 | 292 | 0.0 | 0.0 | 0.00 | 0.00 | 0.00 | 77 | 1070.1 |
| 20260906043948 | 57 | 0 | 0.0 | 0.0 | 0.00 | 0.00 | 0.00 | 77 | 1070.1 |
| 20260906043830 | 57 | 315 | 0.0 | 0.0 | 0.00 | 0.00 | 0.00 | 77 | 1070.1 |
| 20260906043725 | 57 | 315 | 0.0 | 0.0 | 0.00 | 0.00 | 0.00 | 77 | 1070.2 |
| 20260906043618 | 57 | 315 | 0.0 | 0.0 | 0.00 | 0.00 | 0.00 | 77 | 1070.2 |
| 20260906043505 | 57 | 292 | 0.0 | 0.0 | 0.00 | 0.00 | 0.00 | 77 | 1070.2 |
| 20260906043343 | 57 | 292 | 0.0 | 0.0 | 0.00 | 0.00 | 0.00 | 77 | 1070.3 |
| 20260906043222 | 57 | 315 | 0.0 | 0.0 | 0.00 | 0.00 | 0.00 | 77 | 1070.3 |
| 20260906043100 | 57 | 292 | 0.0 | 0.0 | 0.00 | 0.00 | 0.00 | 77 | 1070.3 |
| 20260906042947 | 57 | 292 | 0.0 | 0.0 | 0.00 | 0.00 | 0.00 | 77 | 1070.3 |
| 20260906042835 | 57 | 292 | 0.0 | 0.0 | 0.00 | 0.00 | 0.00 | 77 | 1070.3 |
| 20260906042730 | 57 | 292 | 0.0 | 0.0 | 0.00 | 0.00 | 0.00 | 77 | 1070.3 |
| 20260906042625 | 57 | 292 | 0.0 | 0.0 | 0.00 | 0.00 | 0.00 | 77 | 1070.2 |
| 20260906042503 | 57 | 292 | 0.0 | 0.0 | 0.00 | 0.00 | 0.00 | 77 | 1070.2 |
| 20260906042351 | 57 | 292 | 0.0 | 0.0 | 0.00 | 0.00 | 0.00 | 77 | 1070.2 |
| 20260906042245 | 57 | 292 | 0.0 | 0.0 | 0.00 | 0.00 | 0.00 | 77 | 1070.2 |
| 20260906042134 | 57 | 315 | 0.0 | 0.0 | 0.00 | 0.00 | 0.00 | 77 | 1070.1 |
| 20260906042026 | 57 | 292 | 0.0 | 0.0 | 0.00 | 0.00 | 0.00 | 77 | 1070.2 |
| 20260906041858 | 57 | 292 | 0.0 | 0.0 | 0.00 | 0.00 | 0.00 | 77 | 1070.2 |
| 20260906041752 | 57 | 292 | 0.0 | 0.0 | 0.00 | 0.00 | 0.00 | 77 | 1070.1 |
| 20260906041640 | 57 | 292 | 0.0 | 0.0 | 0.00 | 0.00 | 0.00 | 77 | 1070.1 |
| 20260906041534 | 57 | 337 | 0.0 | 0.0 | 0.00 | 0.00 | 0.00 | 77 | 1070.1 |
| 20260906041421 | 57 | 315 | 0.0 | 0.0 | 0.00 | 0.00 | 0.00 | 76 | 1070.1 |
| 20260906041308 | 57 | 315 | 0.0 | 0.0 | 0.00 | 0.00 | 0.00 | 76 | 1070.1 |
| 20260906041146 | 57 | 292 | 0.0 | 0.0 | 0.00 | 0.00 | 0.00 | 76 | 1070.1 |
| 20260906041027 | 57 | 315 | 0.0 | 0.0 | 0.00 | 0.00 | 0.00 | 76 | 1070.1 |
| 20260906040920 | 57 | 315 | 0.0 | 0.0 | 0.00 | 0.00 | 0.00 | 76 | 1070.2 |
| 20260906040806 | 57 | 337 | 0.0 | 0.0 | 0.00 | 0.00 | 0.00 | 76 | 1070.1 |
| 20260906040645 | 57 | 337 | 0.0 | 0.0 | 0.00 | 0.00 | 0.00 | 77 | 1070.1 |
| 20260906040539 | 57 | 315 | 0.0 | 0.0 | 0.00 | 0.00 | 0.00 | 77 | 1070.1 |
| 20260906040411 | 57 | 292 | 0.0 | 0.0 | 0.00 | 0.00 | 0.00 | 77 | 1070.1 |
| 20260906040305 | 57 | 315 | 2.6 | 0.0 | 0.00 | 0.00 | 0.00 | 77 | 1070.1 |
| 20260906040200 | 57 | 315 | 1.7 | 0.0 | 0.00 | 0.00 | 0.00 | 77 | 1070.1 |
| 20260906040049 | 57 | 315 | 0.0 | 0.0 | 0.00 | 0.00 | 0.00 | 77 | 1070.1 |
| 20260906035945 | 57 | 315 | 0.0 | 0.0 | 0.00 | 0.00 | 0.00 | 77 | 1070.0 |
| 20260906035821 | 57 | 315 | 0.0 | 0.0 | 0.00 | 0.00 | 0.00 | 77 | 1070.0 |
| 20260906035716 | 57 | 315 | 0.0 | 0.0 | 0.00 | 0.00 | 0.00 | 77 | 1070.0 |
| 20260906035603 | 57 | 315 | 0.0 | 0.0 | 0.00 | 0.00 | 0.00 | 77 | 1070.0 |
| 20260906035457 | 57 | 292 | 0.0 | 0.0 | 0.00 | 0.00 | 0.00 | 77 | 1070.1 |
| 20260906035336 | 57 | 270 | 0.0 | 0.0 | 0.00 | 0.00 | 0.00 | 77 | 1070.1 |
| 20260906035215 | 57 | 270 | 0.0 | 0.0 | 0.00 | 0.00 | 0.00 | 77 | 1070.1 |
| 20260906035048 | 57 | 292 | 0.0 | 0.0 | 0.00 | 0.00 | 0.00 | 77 | 1069.9 |
| 20260906034933 | 57 | 315 | 0.0 | 0.0 | 0.00 | 0.00 | 0.00 | 77 | 1070.0 |
| 20260906034827 | 57 | 292 | 0.0 | 0.0 | 0.00 | 0.00 | 0.00 | 77 | 1070.0 |
| 20260906034707 | 57 | 292 | 0.0 | 0.0 | 0.00 | 0.00 | 0.00 | 77 | 1069.9 |
| 20260906034556 | 57 | 292 | 0.0 | 0.0 | 0.00 | 0.00 | 0.00 | 77 | 1069.9 |
| 20260906034448 | 57 | 292 | 0.0 | 0.0 | 0.00 | 0.00 | 0.00 | 77 | 1069.9 |
| 20260906034335 | 57 | 292 | 0.0 | 0.0 | 0.00 | 0.00 | 0.00 | 76 | 1069.9 |
| 20260906034230 | 57 | 270 | 0.0 | 0.0 | 0.00 | 0.00 | 0.00 | 76 | 1069.9 |
| 20260906034111 | 57 | 292 | 0.0 | 0.0 | 0.00 | 0.00 | 0.00 | 77 | 1069.9 |
| 20260906034006 | 57 | 292 | 0.0 | 0.0 | 0.00 | 0.00 | 0.00 | 77 | 1069.9 |
| 20260906033901 | 57 | 315 | 0.0 | 0.0 | 0.00 | 0.00 | 0.00 | 77 | 1069.9 |
| 20260906033746 | 57 | 315 | 0.0 | 0.0 | 0.00 | 0.00 | 0.00 | 77 | 1070.0 |
| 20260906033632 | 57 | 270 | 0.0 | 0.0 | 0.00 | 0.00 | 0.00 | 77 | 1070.0 |
| 20260906033514 | 57 | 0 | 0.0 | 0.0 | 0.00 | 0.00 | 0.00 | 77 | 1070.0 |
| 20260906033359 | 57 | 315 | 0.0 | 0.0 | 0.00 | 0.00 | 0.00 | 77 | 1069.9 |
| 20260906033256 | 57 | 315 | 0.0 | 0.0 | 0.00 | 0.00 | 0.00 | 77 | 1069.9 |
| 20260906033148 | 57 | 315 | 0.0 | 0.0 | 0.00 | 0.00 | 0.00 | 76 | 1069.9 |
| 20260906033034 | 57 | 315 | 0.0 | 0.0 | 0.00 | 0.00 | 0.00 | 76 | 1069.8 |
| 20260906032915 | 57 | 292 | 0.0 | 0.0 | 0.00 | 0.00 | 0.00 | 76 | 1069.9 |
| 20260906032800 | 57 | 315 | 0.0 | 0.0 | 0.00 | 0.00 | 0.00 | 76 | 1069.9 |
| 20260906032647 | 57 | 292 | 0.0 | 0.0 | 0.00 | 0.00 | 0.00 | 76 | 1069.9 |
| 20260906032543 | 57 | 315 | 0.0 | 0.0 | 0.00 | 0.00 | 0.00 | 76 | 1069.8 |
| 20260906032438 | 57 | 315 | 0.0 | 0.0 | 0.00 | 0.00 | 0.00 | 76 | 1069.8 |
| 20260906032333 | 57 | 292 | 0.0 | 0.0 | 0.00 | 0.00 | 0.00 | 76 | 1069.9 |
| 20260906032227 | 57 | 292 | 0.0 | 0.0 | 0.00 | 0.00 | 0.00 | 76 | 1069.9 |
| 20260906032100 | 57 | 315 | 0.0 | 0.0 | 0.00 | 0.00 | 0.00 | 76 | 1069.8 |
| 20260906031953 | 57 | 292 | 0.0 | 0.0 | 0.00 | 0.00 | 0.00 | 76 | 1069.8 |
| 20260906031840 | 57 | 292 | 0.0 | 0.0 | 0.00 | 0.00 | 0.00 | 76 | 1069.8 |
| 20260906031718 | 57 | 292 | 0.0 | 0.0 | 0.00 | 0.00 | 0.00 | 76 | 1069.8 |
| 20260906031558 | 57 | 315 | 0.0 | 0.0 | 0.00 | 0.00 | 0.00 | 76 | 1069.8 |
| 20260906031444 | 57 | 292 | 0.0 | 0.0 | 0.00 | 0.00 | 0.00 | 76 | 1069.8 |
| 20260906031332 | 57 | 315 | 0.0 | 0.0 | 0.00 | 0.00 | 0.00 | 76 | 1069.8 |
| 20260906031218 | 57 | 292 | 0.0 | 0.0 | 0.00 | 0.00 | 0.00 | 76 | 1069.8 |
| 20260906031105 | 57 | 315 | 0.0 | 0.0 | 0.00 | 0.00 | 0.00 | 76 | 1069.8 |
| 20260906031000 | 57 | 315 | 0.0 | 0.0 | 0.00 | 0.00 | 0.00 | 76 | 1069.8 |
| 20260906030839 | 57 | 270 | 0.0 | 0.0 | 0.00 | 0.00 | 0.00 | 76 | 1069.8 |
| 20260906030719 | 57 | 337 | 0.0 | 0.0 | 0.00 | 0.00 | 0.00 | 75 | 1069.8 |
| 20260906030612 | 57 | 315 | 0.0 | 0.0 | 0.00 | 0.00 | 0.00 | 75 | 1069.8 |
| 20260906030501 | 57 | 292 | 0.0 | 0.0 | 0.00 | 0.00 | 0.00 | 75 | 1069.8 |
| 20260906030346 | 57 | 292 | 0.0 | 0.0 | 0.00 | 0.00 | 0.00 | 75 | 1069.8 |
| 20260906030226 | 57 | 315 | 0.0 | 0.0 | 0.00 | 0.00 | 0.00 | 75 | 1069.8 |
| 20260906030111 | 57 | 315 | 0.0 | 0.0 | 0.00 | 0.00 | 0.00 | 75 | 1069.8 |
| 20260906025953 | 57 | 292 | 0.0 | 0.0 | 0.00 | 0.00 | 0.00 | 75 | 1069.8 |
| 20260906025846 | 57 | 292 | 0.0 | 0.0 | 0.00 | 0.00 | 0.00 | 75 | 1069.8 |
| 20260906025732 | 57 | 292 | 0.0 | 0.0 | 0.00 | 0.00 | 0.00 | 75 | 1069.8 |
| 20260906025618 | 57 | 315 | 0.0 | 0.0 | 0.00 | 0.00 | 0.00 | 75 | 1069.8 |
| 20260906025434 | 57 | 315 | 0.0 | 0.0 | 0.00 | 0.00 | 0.00 | 75 | 1069.8 |
| 20260906025321 | 57 | 315 | 0.0 | 0.0 | 0.00 | 0.00 | 0.00 | 75 | 1069.7 |
| 20260906025210 | 58 | 337 | 0.0 | 0.0 | 0.00 | 0.00 | 0.00 | 74 | 1069.9 |
| 20260906025101 | 58 | 270 | 0.0 | 0.0 | 0.00 | 0.00 | 0.00 | 74 | 1069.8 |
| 20260906024941 | 58 | 315 | 0.0 | 0.0 | 0.00 | 0.00 | 0.00 | 74 | 1069.7 |
| 20260906024828 | 58 | 315 | 0.0 | 0.0 | 0.00 | 0.00 | 0.00 | 74 | 1069.8 |
| 20260906024715 | 58 | 315 | 0.0 | 0.0 | 0.00 | 0.00 | 0.00 | 74 | 1069.8 |
| 20260906024602 | 58 | 337 | 0.0 | 0.0 | 0.00 | 0.00 | 0.00 | 74 | 1069.8 |
| 20260906024449 | 58 | 292 | 0.0 | 0.0 | 0.00 | 0.00 | 0.00 | 74 | 1069.8 |
| 20260906024338 | 58 | 292 | 0.0 | 0.0 | 0.00 | 0.00 | 0.00 | 74 | 1069.8 |
| 20260906024233 | 58 | 315 | 0.0 | 0.0 | 0.00 | 0.00 | 0.00 | 74 | 1069.8 |
| 20260906024117 | 58 | 315 | 0.0 | 0.0 | 0.00 | 0.00 | 0.00 | 74 | 1069.8 |
| 20260906023948 | 58 | 292 | 3.5 | 0.0 | 0.00 | 0.00 | 0.00 | 74 | 1069.8 |
| 20260906023835 | 58 | 315 | 0.0 | 0.0 | 0.00 | 0.00 | 0.00 | 74 | 1069.8 |
| 20260906023721 | 58 | 315 | 0.0 | 0.0 | 0.00 | 0.00 | 0.00 | 74 | 1069.8 |
| 20260906023610 | 58 | 292 | 0.0 | 0.0 | 0.00 | 0.00 | 0.00 | 74 | 1069.8 |
| 20260906023506 | 58 | 292 | 0.0 | 0.0 | 0.00 | 0.00 | 0.00 | 74 | 1069.8 |
| 20260906023401 | 58 | 315 | 0.0 | 0.0 | 0.00 | 0.00 | 0.00 | 74 | 1069.8 |
| 20260906023253 | 58 | 315 | 0.0 | 0.0 | 0.00 | 0.00 | 0.00 | 74 | 1069.8 |
| 20260906023133 | 58 | 292 | 3.5 | 0.0 | 0.00 | 0.00 | 0.00 | 74 | 1069.7 |
| 20260906023027 | 58 | 292 | 0.0 | 0.0 | 0.00 | 0.00 | 0.00 | 74 | 1069.8 |
| 20260906022915 | 58 | 315 | 0.0 | 0.0 | 0.00 | 0.00 | 0.00 | 74 | 1069.8 |
| 20260906022812 | 58 | 292 | 0.0 | 0.0 | 0.00 | 0.00 | 0.00 | 74 | 1069.8 |
| 20260906022656 | 58 | 0 | 4.3 | 0.0 | 0.00 | 0.00 | 0.00 | 74 | 1069.8 |
| 20260906022543 | 58 | 315 | 0.0 | 0.0 | 0.00 | 0.00 | 0.00 | 73 | 1069.8 |
| 20260906022430 | 58 | 315 | 0.0 | 0.0 | 0.00 | 0.00 | 0.00 | 73 | 1069.8 |
| 20260906022326 | 58 | 315 | 0.0 | 0.0 | 0.00 | 0.00 | 0.00 | 73 | 1069.8 |
| 20260906022214 | 58 | 270 | 0.0 | 0.0 | 0.00 | 0.00 | 0.00 | 73 | 1069.9 |
| 20260906022106 | 58 | 292 | 0.0 | 0.0 | 0.00 | 0.00 | 0.00 | 72 | 1069.9 |
| 20260906021948 | 58 | 292 | 0.0 | 0.0 | 0.00 | 0.00 | 0.00 | 72 | 1069.9 |
| 20260906021843 | 58 | 292 | 0.0 | 0.0 | 0.00 | 0.00 | 0.00 | 72 | 1069.9 |
| 20260906021737 | 58 | 292 | 0.0 | 0.0 | 0.00 | 0.00 | 0.00 | 72 | 1069.8 |
| 20260906021631 | 58 | 315 | 0.0 | 0.0 | 0.00 | 0.00 | 0.00 | 72 | 1069.8 |
| 20260906021519 | 58 | 315 | 0.0 | 0.0 | 0.00 | 0.00 | 0.00 | 72 | 1069.8 |
| 20260906021412 | 58 | 315 | 0.0 | 0.0 | 0.00 | 0.00 | 0.00 | 72 | 1069.9 |
| 20260906021259 | 58 | 315 | 0.0 | 0.0 | 0.00 | 0.00 | 0.00 | 72 | 1069.9 |
| 20260906021138 | 58 | 337 | 0.0 | 0.0 | 0.00 | 0.00 | 0.00 | 72 | 1069.9 |
| 20260906021025 | 58 | 315 | 0.0 | 0.0 | 0.00 | 0.00 | 0.00 | 72 | 1070.0 |
| 20260906020906 | 58 | 315 | 0.0 | 0.0 | 0.00 | 0.00 | 0.00 | 72 | 1069.9 |
| 20260906020758 | 59 | 315 | 0.0 | 0.0 | 0.00 | 0.00 | 0.00 | 72 | 1069.9 |
| 20260906020635 | 59 | 0 | 0.0 | 0.0 | 0.00 | 0.00 | 0.00 | 72 | 1069.9 |
| 20260906020522 | 59 | 315 | 0.0 | 0.0 | 0.00 | 0.00 | 0.00 | 72 | 1069.9 |
| 20260906020418 | 59 | 315 | 0.0 | 0.0 | 0.00 | 0.00 | 0.00 | 72 | 1069.9 |
| 20260906020309 | 59 | 315 | 3.5 | 0.0 | 0.00 | 0.00 | 0.00 | 72 | 1069.9 |
| 20260906020149 | 58 | 22 | 0.0 | 0.0 | 0.00 | 0.00 | 0.00 | 72 | 1069.9 |
| 20260906020038 | 58 | 292 | 5.2 | 0.0 | 0.00 | 0.00 | 0.00 | 72 | 1069.9 |
| 20260906015922 | 58 | 315 | 1.7 | 0.0 | 0.00 | 0.00 | 0.00 | 72 | 1070.0 |
| 20260906015809 | 58 | 337 | 0.0 | 0.0 | 0.00 | 0.00 | 0.00 | 72 | 1069.9 |
| 20260906015658 | 58 | 315 | 0.0 | 0.0 | 0.00 | 0.00 | 0.00 | 72 | 1069.9 |
| 20260906015551 | 58 | 315 | 0.0 | 0.0 | 0.00 | 0.00 | 0.00 | 72 | 1069.9 |
| 20260906015421 | 58 | 292 | 0.0 | 0.0 | 0.00 | 0.00 | 0.00 | 73 | 1069.9 |
| 20260906015305 | 58 | 315 | 0.0 | 0.0 | 0.00 | 0.00 | 0.00 | 73 | 1069.9 |
| 20260906015155 | 58 | 292 | 0.0 | 0.0 | 0.00 | 0.00 | 0.00 | 73 | 1069.9 |
| 20260906015042 | 58 | 315 | 0.0 | 0.0 | 0.00 | 0.00 | 0.00 | 73 | 1069.9 |
| 20260906014922 | 58 | 337 | 0.0 | 0.0 | 0.00 | 0.00 | 0.00 | 72 | 1069.9 |
| 20260906014817 | 58 | 315 | 0.0 | 0.0 | 0.00 | 0.00 | 0.00 | 72 | 1069.9 |
| 20260906014711 | 58 | 315 | 0.0 | 0.0 | 0.00 | 0.00 | 0.00 | 72 | 1069.9 |
| 20260906014558 | 58 | 270 | 0.0 | 0.0 | 0.00 | 0.00 | 0.00 | 72 | 1069.9 |
| 20260906014452 | 58 | 270 | 0.0 | 0.0 | 0.00 | 0.00 | 0.00 | 72 | 1069.9 |
| 20260906014325 | 58 | 315 | 0.0 | 0.0 | 0.00 | 0.00 | 0.00 | 72 | 1069.9 |
| 20260906014219 | 58 | 315 | 0.0 | 0.0 | 0.00 | 0.00 | 0.00 | 72 | 1069.9 |
| 20260906014111 | 58 | 315 | 0.0 | 0.0 | 0.00 | 0.00 | 0.00 | 71 | 1069.9 |
| 20260906013957 | 58 | 0 | 0.0 | 0.0 | 0.00 | 0.00 | 0.00 | 71 | 1069.9 |
| 20260906013851 | 59 | 315 | 0.0 | 0.0 | 0.00 | 0.00 | 0.00 | 71 | 1069.9 |
| 20260906013731 | 59 | 0 | 0.0 | 0.0 | 0.00 | 0.00 | 0.00 | 71 | 1069.9 |
| 20260906013625 | 59 | 315 | 0.0 | 0.0 | 0.00 | 0.00 | 0.00 | 71 | 1069.9 |
| 20260906013512 | 59 | 270 | 2.6 | 0.0 | 0.00 | 0.00 | 0.00 | 71 | 1069.9 |
| 20260906013352 | 59 | 315 | 0.0 | 0.0 | 0.00 | 0.00 | 0.00 | 71 | 1069.9 |
| 20260906013240 | 59 | 315 | 0.0 | 0.0 | 0.00 | 0.00 | 0.00 | 71 | 1069.9 |
| 20260906013125 | 59 | 315 | 0.0 | 0.0 | 0.00 | 0.00 | 0.00 | 71 | 1069.9 |
| 20260906013012 | 59 | 0 | 0.0 | 0.0 | 0.00 | 0.00 | 0.00 | 71 | 1069.9 |
| 20260906012905 | 59 | 315 | 6.1 | 0.0 | 0.00 | 0.00 | 0.00 | 71 | 1069.8 |
| 20260906012754 | 59 | 292 | 0.0 | 0.0 | 0.00 | 0.00 | 0.00 | 71 | 1070.0 |
| 20260906012640 | 58 | 292 | 3.5 | 0.0 | 0.00 | 0.00 | 0.00 | 71 | 1069.8 |
| 20260906012518 | 58 | 0 | 0.0 | 0.0 | 0.00 | 0.00 | 0.00 | 71 | 1069.9 |
| 20260906012405 | 58 | 292 | 0.0 | 0.0 | 0.00 | 0.00 | 0.00 | 71 | 1069.9 |
| 20260906012259 | 58 | 315 | 0.0 | 0.0 | 0.00 | 0.00 | 0.00 | 72 | 1069.9 |
| 20260906012143 | 58 | 315 | 0.0 | 0.0 | 0.00 | 0.00 | 0.00 | 72 | 1069.9 |
| 20260906012032 | 58 | 292 | 5.2 | 0.0 | 0.00 | 0.00 | 0.00 | 72 | 1069.9 |
| 20260906011918 | 58 | 270 | 4.3 | 0.0 | 0.00 | 0.00 | 0.00 | 72 | 1069.8 |
| 20260906011750 | 58 | 337 | 0.0 | 0.0 | 0.00 | 0.00 | 0.00 | 72 | 1069.8 |
| 20260906011647 | 58 | 315 | 0.0 | 0.0 | 0.00 | 0.00 | 0.00 | 72 | 1069.8 |
| 20260906011539 | 58 | 270 | 4.3 | 0.0 | 0.00 | 0.00 | 0.00 | 72 | 1069.9 |
| 20260906011426 | 58 | 292 | 7.8 | 0.0 | 0.00 | 0.00 | 0.00 | 72 | 1069.9 |
| 20260906011321 | 58 | 337 | 0.0 | 0.0 | 0.00 | 0.00 | 0.00 | 72 | 1069.9 |
| 20260906011208 | 58 | 337 | 0.0 | 0.0 | 0.00 | 0.00 | 0.00 | 72 | 1069.9 |
| 20260906011055 | 58 | 292 | 0.0 | 0.0 | 0.00 | 0.00 | 0.00 | 72 | 1069.8 |
| 20260906010941 | 58 | 315 | 5.2 | 0.0 | 0.00 | 0.00 | 0.00 | 72 | 1069.9 |
| 20260906010828 | 58 | 315 | 1.7 | 0.0 | 0.00 | 0.00 | 0.00 | 72 | 1069.8 |
| 20260906010715 | 58 | 292 | 0.0 | 0.0 | 0.00 | 0.00 | 0.00 | 72 | 1069.8 |
| 20260906010602 | 58 | 292 | 1.7 | 0.0 | 0.00 | 0.00 | 0.00 | 72 | 1069.8 |
| 20260906010457 | 58 | 292 | 0.0 | 0.0 | 0.00 | 0.00 | 0.00 | 71 | 1069.8 |
| 20260906010336 | 58 | 337 | 0.0 | 0.0 | 0.00 | 0.00 | 0.00 | 71 | 1069.8 |
| 20260906005900 | 58 | 337 | 1.7 | 0.0 | 0.00 | 0.00 | 0.00 | 72 | 1069.7 |
| 20260906005737 | 58 | 315 | 0.0 | 0.0 | 0.00 | 0.00 | 0.00 | 72 | 1069.7 |
| 20260906005615 | 58 | 315 | 0.0 | 0.0 | 0.00 | 0.00 | 0.00 | 71 | 1069.8 |
| 20260906005454 | 58 | 315 | 0.0 | 0.0 | 0.00 | 0.00 | 0.00 | 71 | 1069.7 |
| 20260906005332 | 58 | 315 | 3.5 | 0.0 | 0.00 | 0.00 | 0.00 | 71 | 1069.7 |
| 20260906005226 | 58 | 270 | 0.0 | 0.0 | 0.00 | 0.00 | 0.00 | 71 | 1069.7 |
| 20260906005114 | 58 | 315 | 0.0 | 0.0 | 0.00 | 0.00 | 0.00 | 71 | 1069.6 |
| 20260906005008 | 58 | 337 | 0.0 | 0.0 | 0.00 | 0.00 | 0.00 | 71 | 1069.6 |
| 20260906004855 | 59 | 337 | 0.0 | 0.0 | 0.00 | 0.00 | 0.00 | 71 | 1069.6 |
| 20260906004744 | 59 | 315 | 0.0 | 0.0 | 0.00 | 0.00 | 0.00 | 71 | 1069.6 |
| 20260906004639 | 59 | 292 | 0.0 | 0.0 | 0.00 | 0.00 | 0.00 | 71 | 1069.6 |
| 20260906004524 | 59 | 337 | 0.0 | 0.0 | 0.00 | 0.00 | 0.00 | 71 | 1069.6 |
| 20260906004411 | 59 | 315 | 0.0 | 0.0 | 0.00 | 0.00 | 0.00 | 71 | 1069.7 |
| 20260906004305 | 58 | 315 | 0.0 | 0.0 | 0.00 | 0.00 | 0.00 | 71 | 1069.7 |
| 20260906004152 | 58 | 337 | 0.0 | 0.0 | 0.00 | 0.00 | 0.00 | 71 | 1069.6 |
| 20260906004022 | 59 | 315 | 2.6 | 0.0 | 0.00 | 0.00 | 0.00 | 72 | 1069.6 |
| 20260906003859 | 59 | 315 | 0.0 | 0.0 | 0.00 | 0.00 | 0.00 | 72 | 1069.6 |
| 20260906003741 | 59 | 337 | 0.0 | 0.0 | 0.00 | 0.00 | 0.00 | 72 | 1069.6 |
| 20260906003625 | 59 | 315 | 3.5 | 0.0 | 0.00 | 0.00 | 0.00 | 72 | 1069.7 |
| 20260906003519 | 59 | 337 | 0.0 | 0.0 | 0.00 | 0.00 | 0.00 | 72 | 1069.7 |
| 20260906003413 | 59 | 337 | 0.0 | 0.0 | 0.00 | 0.00 | 0.00 | 72 | 1069.7 |
| 20260906003308 | 59 | 337 | 0.0 | 0.0 | 0.00 | 0.00 | 0.00 | 72 | 1069.6 |
| 20260906003203 | 59 | 315 | 0.0 | 0.0 | 0.00 | 0.00 | 0.00 | 72 | 1069.6 |
| 20260906003057 | 59 | 337 | 0.0 | 0.0 | 0.00 | 0.00 | 0.00 | 72 | 1069.6 |
| 20260906002944 | 59 | 337 | 0.0 | 0.0 | 0.00 | 0.00 | 0.00 | 72 | 1069.6 |
| 20260906002823 | 59 | 292 | 0.0 | 0.0 | 0.00 | 0.00 | 0.00 | 72 | 1069.6 |
| 20260906002709 | 59 | 315 | 5.2 | 0.0 | 0.00 | 0.00 | 0.00 | 72 | 1069.6 |
| 20260906002559 | 59 | 315 | 0.0 | 0.0 | 0.00 | 0.00 | 0.00 | 72 | 1069.6 |
| 20260906002452 | 59 | 315 | 0.0 | 0.0 | 0.00 | 0.00 | 0.00 | 72 | 1069.6 |
| 20260906002338 | 59 | 337 | 0.0 | 0.0 | 0.00 | 0.00 | 0.00 | 72 | 1069.6 |
| 20260906002208 | 59 | 315 | 4.3 | 0.0 | 0.00 | 0.00 | 0.00 | 72 | 1069.6 |
| 20260906002046 | 59 | 315 | 5.2 | 0.0 | 0.00 | 0.00 | 0.00 | 72 | 1069.6 |
| 20260906001932 | 58 | 0 | 7.8 | 0.0 | 0.00 | 0.00 | 0.00 | 72 | 1069.5 |
| 20260906001826 | 58 | 292 | 3.5 | 0.0 | 0.00 | 0.00 | 0.00 | 73 | 1069.4 |
| 20260906001705 | 58 | 337 | 2.6 | 0.0 | 0.00 | 0.00 | 0.00 | 74 | 1069.4 |
| 20260906001545 | 58 | 337 | 0.0 | 0.0 | 0.00 | 0.00 | 0.00 | 74 | 1069.4 |
| 20260906001431 | 58 | 0 | 0.0 | 0.0 | 0.00 | 0.00 | 0.00 | 74 | 1069.5 |
| 20260906001302 | 58 | 292 | 0.0 | 0.0 | 0.00 | 0.00 | 0.00 | 74 | 1069.4 |
| 20260906001150 | 58 | 337 | 0.0 | 0.0 | 0.00 | 0.00 | 0.00 | 74 | 1069.4 |
| 20260906001035 | 58 | 337 | 6.1 | 0.0 | 0.00 | 0.00 | 0.00 | 74 | 1069.4 |
| 20260906000908 | 58 | 315 | 0.0 | 0.0 | 0.00 | 0.00 | 0.00 | 75 | 1069.4 |
| 20260906000753 | 58 | 315 | 0.0 | 0.0 | 0.00 | 0.00 | 0.00 | 75 | 1069.5 |
| 20260906000640 | 58 | 270 | 0.0 | 0.0 | 0.00 | 0.00 | 0.00 | 75 | 1069.4 |
| 20260906000527 | 58 | 0 | 0.0 | 0.0 | 0.00 | 0.00 | 0.00 | 75 | 1069.5 |
| 20260906000422 | 58 | 315 | 0.0 | 0.0 | 0.00 | 0.00 | 0.00 | 75 | 1069.5 |
| 20260906000311 | 58 | 337 | 0.0 | 0.0 | 0.00 | 0.00 | 0.00 | 74 | 1069.4 |
| 20260906000147 | 58 | 292 | 0.0 | 0.0 | 0.00 | 0.00 | 0.00 | 74 | 1069.5 |
| 20260906000026 | 58 | 292 | 0.0 | 0.0 | 0.00 | 0.00 | 0.00 | 74 | 1069.4 |
| 20260905235905 | 58 | 292 | 0.0 | 0.0 | 0.00 | 0.00 | 0.00 | 74 | 1069.4 |
| 20260905235800 | 58 | 292 | 0.0 | 0.0 | 0.00 | 0.00 | 0.00 | 74 | 1069.4 |
| 20260905235647 | 58 | 292 | 0.0 | 0.0 | 0.00 | 0.00 | 0.00 | 74 | 1069.4 |
| 20260905235543 | 58 | 315 | 0.0 | 0.0 | 0.00 | 0.00 | 0.00 | 73 | 1069.4 |
| 20260905235436 | 58 | 315 | 0.0 | 0.0 | 0.00 | 0.00 | 0.00 | 73 | 1069.5 |
| 20260905235325 | 58 | 315 | 2.6 | 0.0 | 0.00 | 0.00 | 0.00 | 73 | 1069.4 |
| 20260905235218 | 58 | 315 | 3.5 | 0.0 | 0.00 | 0.00 | 0.00 | 72 | 1069.4 |
| 20260905235057 | 58 | 337 | 4.3 | 0.0 | 0.00 | 0.00 | 0.00 | 72 | 1069.4 |
| 20260905234936 | 58 | 337 | 3.5 | 0.0 | 0.00 | 0.00 | 0.00 | 72 | 1069.4 |
| 20260905234815 | 58 | 315 | 5.2 | 0.0 | 0.00 | 0.00 | 0.00 | 72 | 1069.4 |
| 20260905234710 | 58 | 292 | 0.0 | 0.0 | 0.00 | 0.00 | 0.00 | 72 | 1069.4 |
| 20260905234557 | 58 | 315 | 4.3 | 0.0 | 0.00 | 0.00 | 0.00 | 71 | 1069.3 |
| 20260905234452 | 58 | 292 | 3.5 | 0.0 | 0.00 | 0.00 | 0.00 | 71 | 1069.3 |
| 20260905234337 | 58 | 292 | 0.9 | 0.0 | 0.00 | 0.00 | 0.00 | 71 | 1069.2 |
| 20260905234223 | 58 | 315 | 0.0 | 0.0 | 0.00 | 0.00 | 0.00 | 71 | 1069.2 |
| 20260905234109 | 58 | 337 | 0.0 | 0.0 | 0.00 | 0.00 | 0.00 | 71 | 1069.3 |
| 20260905233948 | 58 | 337 | 0.0 | 0.0 | 0.00 | 0.00 | 0.00 | 71 | 1069.2 |
| 20260905233837 | 58 | 315 | 3.5 | 0.0 | 0.00 | 0.00 | 0.00 | 72 | 1069.2 |
| 20260905233729 | 58 | 315 | 4.3 | 0.0 | 0.00 | 0.00 | 0.00 | 72 | 1069.2 |
| 20260905233608 | 59 | 315 | 0.0 | 0.0 | 0.00 | 0.00 | 0.00 | 72 | 1069.3 |
| 20260905233447 | 59 | 337 | 0.0 | 0.0 | 0.00 | 0.00 | 0.00 | 72 | 1069.2 |
| 20260905233333 | 59 | 247 | 0.0 | 0.0 | 0.00 | 0.00 | 0.00 | 72 | 1069.2 |
| 20260905233219 | 59 | 315 | 3.5 | 0.0 | 0.00 | 0.00 | 0.00 | 72 | 1069.2 |
| 20260905233112 | 59 | 0 | 0.0 | 0.0 | 0.00 | 0.00 | 0.00 | 72 | 1069.2 |
| 20260905233008 | 59 | 270 | 0.0 | 0.0 | 0.00 | 0.00 | 0.00 | 72 | 1069.2 |
| 20260905232901 | 59 | 337 | 0.0 | 0.0 | 0.00 | 0.00 | 0.00 | 72 | 1069.2 |
| 20260905232748 | 59 | 315 | 0.0 | 0.0 | 0.00 | 0.00 | 0.00 | 72 | 1069.2 |
| 20260905232639 | 59 | 337 | 0.0 | 0.0 | 0.00 | 0.00 | 0.00 | 72 | 1069.2 |
| 20260905232522 | 59 | 315 | 0.0 | 0.0 | 0.00 | 0.00 | 0.00 | 72 | 1069.2 |
| 20260905232409 | 59 | 0 | 0.0 | 0.0 | 0.00 | 0.00 | 0.00 | 72 | 1069.3 |
| 20260905232306 | 59 | 315 | 0.0 | 0.0 | 0.00 | 0.00 | 0.00 | 72 | 1069.2 |
| 20260905232150 | 59 | 337 | 6.1 | 0.0 | 0.00 | 0.00 | 0.00 | 72 | 1069.2 |
| 20260905232022 | 59 | 292 | 0.0 | 0.0 | 0.00 | 0.00 | 0.00 | 72 | 1069.2 |
| 20260905231916 | 59 | 315 | 7.0 | 0.0 | 0.00 | 0.00 | 0.00 | 72 | 1069.3 |
| 20260905231811 | 59 | 315 | 0.0 | 0.0 | 0.00 | 0.00 | 0.00 | 72 | 1069.3 |
| 20260905231649 | 59 | 315 | 3.5 | 0.0 | 0.00 | 0.00 | 0.00 | 72 | 1069.3 |
| 20260905231529 | 59 | 315 | 7.8 | 0.0 | 0.00 | 0.00 | 0.00 | 72 | 1069.2 |
| 20260905231424 | 59 | 337 | 0.0 | 0.0 | 0.00 | 0.00 | 0.00 | 72 | 1069.2 |
| 20260905231311 | 59 | 337 | 2.6 | 0.0 | 0.00 | 0.00 | 0.00 | 72 | 1069.2 |
| 20260905231151 | 59 | 315 | 0.0 | 0.0 | 0.00 | 0.00 | 0.00 | 72 | 1069.2 |
| 20260905231044 | 59 | 337 | 0.0 | 0.0 | 0.00 | 0.00 | 0.00 | 72 | 1069.1 |
| 20260905230917 | 59 | 315 | 3.5 | 0.0 | 0.00 | 0.00 | 0.00 | 72 | 1069.1 |
| 20260905230809 | 59 | 0 | 0.0 | 0.0 | 0.00 | 0.00 | 0.00 | 72 | 1069.1 |
| 20260905230647 | 59 | 315 | 4.3 | 0.0 | 0.00 | 0.00 | 0.00 | 72 | 1069.1 |
| 20260905230525 | 59 | 0 | 1.7 | 0.0 | 0.00 | 0.00 | 0.00 | 72 | 1069.1 |
| 20260905230420 | 59 | 337 | 9.6 | 0.0 | 0.00 | 0.00 | 0.00 | 72 | 1069.1 |
| 20260905230307 | 59 | 315 | 5.2 | 0.0 | 0.00 | 0.00 | 0.00 | 72 | 1069.0 |
| 20260905230200 | 59 | 315 | 0.0 | 0.0 | 0.00 | 0.00 | 0.00 | 72 | 1069.0 |
| 20260905230037 | 59 | 315 | 0.0 | 0.0 | 0.00 | 0.00 | 0.00 | 72 | 1069.0 |
| 20260905225915 | 59 | 337 | 0.0 | 0.0 | 0.00 | 0.00 | 0.00 | 72 | 1068.9 |
| 20260905225808 | 59 | 315 | 0.0 | 0.0 | 0.00 | 0.00 | 0.00 | 72 | 1068.9 |
| 20260905225655 | 59 | 292 | 0.0 | 0.0 | 0.00 | 0.00 | 0.00 | 72 | 1069.0 |
| 20260905225548 | 59 | 270 | 0.0 | 0.0 | 0.00 | 0.00 | 0.00 | 72 | 1068.9 |
| 20260905225442 | 59 | 315 | 0.0 | 0.0 | 0.00 | 0.00 | 0.00 | 71 | 1069.0 |
| 20260905225329 | 59 | 292 | 0.0 | 0.0 | 0.00 | 0.00 | 0.00 | 71 | 1069.0 |
| 20260905225218 | 59 | 315 | 5.2 | 0.0 | 0.00 | 0.00 | 0.00 | 71 | 1069.1 |
| 20260905225103 | 59 | 315 | 0.0 | 0.0 | 0.00 | 0.00 | 0.00 | 71 | 1069.1 |
| 20260905224941 | 59 | 292 | 5.2 | 0.0 | 0.00 | 0.00 | 0.00 | 71 | 1069.1 |
| 20260905224820 | 59 | 292 | 0.0 | 0.0 | 0.00 | 0.00 | 0.00 | 71 | 1069.0 |
| 20260905224707 | 59 | 315 | 1.7 | 0.0 | 0.00 | 0.00 | 0.00 | 72 | 1069.1 |
| 20260905224554 | 59 | 337 | 6.1 | 0.0 | 0.00 | 0.00 | 0.00 | 72 | 1069.0 |
| 20260905224433 | 59 | 315 | 1.7 | 0.0 | 0.00 | 0.00 | 0.00 | 72 | 1069.0 |
| 20260905224320 | 59 | 315 | 0.0 | 0.0 | 0.00 | 0.00 | 0.00 | 71 | 1069.0 |
| 20260905224215 | 59 | 337 | 0.0 | 0.0 | 0.00 | 0.00 | 0.00 | 71 | 1069.0 |
| 20260905224109 | 59 | 0 | 3.5 | 0.0 | 0.00 | 0.00 | 0.00 | 71 | 1068.9 |
| 20260905223959 | 59 | 337 | 4.3 | 0.0 | 0.00 | 0.00 | 0.00 | 71 | 1068.9 |
| 20260905223852 | 59 | 292 | 0.0 | 0.0 | 0.00 | 0.00 | 0.00 | 70 | 1068.9 |
| 20260905223747 | 59 | 315 | 5.2 | 0.0 | 0.00 | 0.00 | 0.00 | 70 | 1068.9 |
| 20260905223636 | 59 | 315 | 0.0 | 0.0 | 0.00 | 0.00 | 0.00 | 70 | 1068.9 |
| 20260905223520 | 59 | 0 | 0.0 | 0.0 | 0.00 | 0.00 | 0.00 | 69 | 1068.9 |
| 20260905223408 | 59 | 337 | 2.6 | 0.0 | 0.00 | 0.00 | 0.00 | 69 | 1068.8 |
| 20260905223254 | 59 | 315 | 0.0 | 0.0 | 0.00 | 0.00 | 0.00 | 69 | 1068.8 |
| 20260905223135 | 59 | 315 | 0.0 | 0.0 | 0.00 | 0.00 | 0.00 | 69 | 1068.7 |
| 20260905223028 | 59 | 337 | 0.0 | 0.0 | 0.00 | 0.00 | 0.00 | 70 | 1068.7 |
| 20260905222915 | 59 | 337 | 0.0 | 0.0 | 0.00 | 0.00 | 0.00 | 69 | 1068.8 |
| 20260905222809 | 59 | 315 | 0.0 | 0.0 | 0.00 | 0.00 | 0.00 | 69 | 1068.8 |
| 20260905222656 | 59 | 315 | 4.3 | 0.0 | 0.00 | 0.00 | 0.00 | 69 | 1068.8 |
| 20260905222545 | 59 | 337 | 4.3 | 0.0 | 0.00 | 0.00 | 0.00 | 69 | 1068.8 |
| 20260905222440 | 59 | 315 | 0.0 | 0.0 | 0.00 | 0.00 | 0.00 | 69 | 1068.7 |
| 20260905222334 | 59 | 315 | 3.5 | 0.0 | 0.00 | 0.00 | 0.00 | 69 | 1068.7 |
| 20260905222220 | 59 | 315 | 0.0 | 0.0 | 0.00 | 0.00 | 0.00 | 69 | 1068.7 |
| 20260905222106 | 59 | 292 | 0.0 | 0.0 | 0.00 | 0.00 | 0.00 | 69 | 1068.6 |
| 20260905221938 | 59 | 337 | 3.5 | 0.0 | 0.00 | 0.00 | 0.00 | 69 | 1068.6 |
| 20260905221825 | 59 | 337 | 1.7 | 0.0 | 0.00 | 0.00 | 0.00 | 69 | 1068.6 |
| 20260905221719 | 59 | 315 | 0.0 | 0.0 | 0.00 | 0.00 | 0.00 | 68 | 1068.6 |
| 20260905221559 | 59 | 315 | 5.2 | 0.0 | 0.00 | 0.00 | 0.00 | 68 | 1068.5 |
| 20260905221453 | 59 | 292 | 0.9 | 0.0 | 0.00 | 0.00 | 0.00 | 67 | 1068.6 |
| 20260905221342 | 59 | 315 | 0.0 | 0.0 | 0.00 | 0.00 | 0.00 | 67 | 1068.6 |
| 20260905221235 | 59 | 315 | 7.0 | 0.0 | 0.00 | 0.00 | 0.00 | 67 | 1068.6 |
| 20260905221057 | 59 | 337 | 0.0 | 0.0 | 0.00 | 0.00 | 0.00 | 67 | 1068.6 |
| 20260905220945 | 59 | 315 | 0.0 | 0.0 | 0.00 | 0.00 | 0.00 | 67 | 1068.6 |
| 20260905220839 | 59 | 0 | 0.0 | 0.0 | 0.00 | 0.00 | 0.00 | 67 | 1068.6 |
| 20260905220711 | 59 | 0 | 0.0 | 0.0 | 0.00 | 0.00 | 0.00 | 67 | 1068.7 |
| 20260905220557 | 59 | 315 | 5.2 | 0.0 | 0.00 | 0.00 | 0.00 | 67 | 1068.6 |
| 20260905220443 | 59 | 315 | 0.0 | 0.0 | 0.00 | 0.00 | 0.00 | 67 | 1068.6 |
| 20260905220331 | 59 | 292 | 6.1 | 0.0 | 0.00 | 0.00 | 0.00 | 66 | 1068.6 |
| 20260905220226 | 59 | 337 | 5.2 | 0.0 | 0.00 | 0.00 | 0.00 | 66 | 1068.6 |
| 20260905220113 | 59 | 337 | 5.2 | 0.0 | 0.00 | 0.00 | 0.00 | 66 | 1068.6 |
| 20260905220008 | 59 | 315 | 0.0 | 0.0 | 0.00 | 0.00 | 0.00 | 66 | 1068.6 |
| 20260905215846 | 59 | 292 | 4.3 | 0.0 | 0.00 | 0.00 | 0.00 | 66 | 1068.5 |
| 20260905215733 | 59 | 337 | 0.0 | 0.0 | 0.00 | 0.00 | 0.00 | 67 | 1068.5 |
| 20260905215620 | 59 | 0 | 0.0 | 0.0 | 0.00 | 0.00 | 0.00 | 67 | 1068.6 |
| 20260905215508 | 59 | 0 | 8.7 | 0.0 | 0.00 | 0.00 | 0.00 | 67 | 1068.6 |
| 20260905215354 | 59 | 337 | 2.6 | 0.0 | 0.00 | 0.00 | 0.00 | 67 | 1068.5 |
| 20260905215241 | 59 | 0 | 0.0 | 0.0 | 0.00 | 0.00 | 0.00 | 68 | 1068.5 |
| 20260905215128 | 59 | 0 | 0.0 | 0.0 | 0.00 | 0.00 | 0.00 | 68 | 1068.6 |
| 20260905215015 | 59 | 315 | 0.0 | 0.0 | 0.00 | 0.00 | 0.00 | 68 | 1068.5 |
| 20260905214910 | 59 | 337 | 0.0 | 0.0 | 0.00 | 0.00 | 0.00 | 68 | 1068.5 |
| 20260905214759 | 59 | 315 | 0.0 | 0.0 | 0.00 | 0.00 | 0.00 | 68 | 1068.5 |
| 20260905214652 | 59 | 292 | 3.5 | 0.0 | 0.00 | 0.00 | 0.00 | 68 | 1068.6 |
| 20260905214547 | 59 | 0 | 1.7 | 0.0 | 0.00 | 0.00 | 0.00 | 68 | 1068.5 |
| 20260905214441 | 59 | 315 | 0.9 | 0.0 | 0.00 | 0.00 | 0.00 | 68 | 1068.5 |
| 20260905214328 | 59 | 315 | 2.6 | 0.0 | 0.00 | 0.00 | 0.00 | 68 | 1068.6 |
| 20260905214216 | 60 | 315 | 0.0 | 0.0 | 0.00 | 0.00 | 0.00 | 68 | 1068.5 |
| 20260905214102 | 60 | 337 | 0.9 | 0.0 | 0.00 | 0.00 | 0.00 | 68 | 1068.5 |
| 20260905213949 | 60 | 315 | 2.6 | 0.0 | 0.00 | 0.00 | 0.00 | 68 | 1068.6 |
| 20260905213838 | 60 | 337 | 0.0 | 0.0 | 0.00 | 0.00 | 0.00 | 68 | 1068.5 |
| 20260905213732 | 60 | 315 | 0.0 | 0.0 | 0.00 | 0.00 | 0.00 | 69 | 1068.5 |
| 20260905213618 | 60 | 315 | 0.0 | 0.0 | 0.00 | 0.00 | 0.00 | 69 | 1068.6 |
| 20260905213505 | 60 | 337 | 3.5 | 0.0 | 0.00 | 0.00 | 0.00 | 69 | 1068.6 |
| 20260905213343 | 60 | 337 | 1.7 | 0.0 | 0.00 | 0.00 | 0.00 | 69 | 1068.5 |
| 20260905213223 | 60 | 315 | 0.0 | 0.0 | 0.00 | 0.00 | 0.00 | 70 | 1068.6 |
| 20260905213118 | 60 | 315 | 0.0 | 0.0 | 0.00 | 0.00 | 0.00 | 70 | 1068.6 |
| 20260905213012 | 60 | 337 | 0.0 | 0.0 | 0.00 | 0.00 | 0.00 | 70 | 1068.5 |
| 20260905212846 | 60 | 292 | 3.5 | 0.0 | 0.00 | 0.00 | 0.00 | 70 | 1068.6 |
| 20260905212739 | 60 | 337 | 0.0 | 0.0 | 0.00 | 0.00 | 0.00 | 70 | 1068.5 |
| 20260905212633 | 60 | 292 | 2.6 | 0.0 | 0.00 | 0.00 | 0.00 | 69 | 1068.5 |
| 20260905212520 | 60 | 315 | 6.1 | 0.0 | 0.00 | 0.00 | 0.00 | 69 | 1068.5 |
| 20260905212414 | 60 | 337 | 0.0 | 0.0 | 0.00 | 0.00 | 0.00 | 70 | 1068.4 |
| 20260905212247 | 60 | 315 | 7.0 | 0.0 | 0.00 | 0.00 | 0.00 | 70 | 1068.3 |
| 20260905212141 | 60 | 0 | 0.0 | 0.0 | 0.00 | 0.00 | 0.00 | 70 | 1068.5 |
| 20260905212038 | 60 | 337 | 2.6 | 0.0 | 0.00 | 0.00 | 0.00 | 70 | 1068.5 |
| 20260905211930 | 60 | 292 | 0.0 | 0.0 | 0.00 | 0.00 | 0.00 | 70 | 1068.4 |
| 20260905211817 | 60 | 337 | 0.0 | 0.0 | 0.00 | 0.00 | 0.00 | 70 | 1068.3 |
| 20260905211712 | 60 | 270 | 1.7 | 0.0 | 0.00 | 0.00 | 0.00 | 70 | 1068.2 |
| 20260905211559 | 60 | 315 | 1.7 | 0.0 | 0.00 | 0.00 | 0.00 | 70 | 1068.3 |
| 20260905211454 | 60 | 292 | 4.3 | 0.0 | 0.00 | 0.00 | 0.00 | 71 | 1068.4 |
| 20260905211341 | 60 | 270 | 4.3 | 0.0 | 0.00 | 0.00 | 0.00 | 71 | 1068.3 |
| 20260905211228 | 60 | 0 | 0.0 | 0.0 | 0.00 | 0.00 | 0.00 | 71 | 1068.2 |
| 20260905211123 | 60 | 292 | 6.1 | 0.0 | 0.00 | 0.00 | 0.00 | 72 | 1068.3 |
| 20260905211010 | 60 | 0 | 0.0 | 0.0 | 0.00 | 0.00 | 0.00 | 72 | 1068.3 |
| 20260905210905 | 60 | 315 | 7.0 | 0.0 | 0.00 | 0.00 | 0.00 | 72 | 1068.2 |
| 20260905210800 | 60 | 315 | 3.5 | 0.0 | 0.00 | 0.00 | 0.00 | 71 | 1068.3 |
| 20260905210654 | 60 | 315 | 3.5 | 0.0 | 0.00 | 0.00 | 0.00 | 71 | 1068.3 |
| 20260905210544 | 60 | 315 | 1.7 | 0.0 | 0.00 | 0.00 | 0.00 | 71 | 1068.3 |
| 20260905210437 | 60 | 315 | 2.6 | 0.0 | 0.00 | 0.00 | 0.00 | 71 | 1068.2 |
| 20260905210315 | 60 | 315 | 0.9 | 0.0 | 0.00 | 0.00 | 0.00 | 71 | 1068.2 |
| 20260905210155 | 60 | 337 | 1.7 | 0.0 | 0.00 | 0.00 | 0.00 | 71 | 1068.2 |
| 20260905210049 | 60 | 337 | 7.8 | 0.0 | 0.00 | 0.00 | 0.00 | 71 | 1068.1 |
| 20260905205944 | 60 | 0 | 6.1 | 0.0 | 0.00 | 0.00 | 0.00 | 71 | 1068.2 |
| 20260905205833 | 60 | 292 | 11.3 | 0.0 | 0.00 | 0.00 | 0.00 | 72 | 1068.1 |
| 20260905205726 | 60 | 315 | 4.3 | 0.0 | 0.00 | 0.00 | 0.00 | 71 | 1068.2 |
| 20260905205605 | 60 | 315 | 0.0 | 0.0 | 0.00 | 0.00 | 0.00 | 71 | 1068.1 |
| 20260905205500 | 60 | 315 | 0.0 | 0.0 | 0.00 | 0.00 | 0.00 | 71 | 1068.1 |
| 20260905205355 | 60 | 337 | 0.0 | 0.0 | 0.00 | 0.00 | 0.00 | 71 | 1068.1 |
| 20260905205242 | 60 | 315 | 0.0 | 0.0 | 0.00 | 0.00 | 0.00 | 71 | 1068.1 |
| 20260905205120 | 60 | 315 | 0.0 | 0.0 | 0.00 | 0.00 | 0.00 | 71 | 1068.2 |
| 20260905205007 | 60 | 22 | 5.2 | 0.0 | 0.00 | 0.00 | 0.00 | 71 | 1068.2 |
| 20260905204838 | 60 | 315 | 7.0 | 0.0 | 0.00 | 0.00 | 0.00 | 70 | 1068.2 |
| 20260905204724 | 60 | 0 | 0.0 | 0.0 | 0.00 | 0.00 | 0.00 | 70 | 1068.2 |
| 20260905204611 | 60 | 337 | 0.0 | 0.0 | 0.00 | 0.00 | 0.00 | 70 | 1068.1 |
| 20260905204451 | 60 | 315 | 0.0 | 0.0 | 0.00 | 0.00 | 0.00 | 70 | 1068.2 |
| 20260905204337 | 60 | 292 | 2.6 | 0.0 | 0.00 | 0.00 | 0.00 | 70 | 1068.2 |
| 20260905204217 | 60 | 315 | 7.0 | 0.0 | 0.00 | 0.00 | 0.00 | 70 | 1068.1 |
| 20260905204111 | 60 | 337 | 4.3 | 0.0 | 0.00 | 0.00 | 0.00 | 71 | 1068.2 |
| 20260905203950 | 60 | 292 | 0.0 | 0.0 | 0.00 | 0.00 | 0.00 | 71 | 1068.1 |
| 20260905203845 | 60 | 292 | 0.0 | 0.0 | 0.00 | 0.00 | 0.00 | 71 | 1068.2 |
| 20260905203734 | 60 | 315 | 0.0 | 0.0 | 0.00 | 0.00 | 0.00 | 70 | 1068.2 |
| 20260905203627 | 60 | 315 | 7.0 | 0.0 | 0.00 | 0.00 | 0.00 | 70 | 1068.1 |
| 20260905203514 | 60 | 0 | 0.0 | 0.0 | 0.00 | 0.00 | 0.00 | 70 | 1068.1 |
| 20260905203409 | 61 | 315 | 0.0 | 0.0 | 0.00 | 0.00 | 0.00 | 70 | 1068.1 |
| 20260905203304 | 61 | 337 | 12.2 | 0.0 | 0.00 | 0.00 | 0.00 | 70 | 1068.2 |
| 20260905203152 | 61 | 315 | 0.0 | 0.0 | 0.00 | 0.00 | 0.00 | 70 | 1068.1 |
| 20260905203045 | 61 | 337 | 5.2 | 0.0 | 0.00 | 0.00 | 0.00 | 69 | 1068.1 |
| 20260905202932 | 61 | 337 | 2.6 | 0.0 | 0.00 | 0.00 | 0.00 | 69 | 1068.1 |
| 20260905202827 | 61 | 0 | 0.0 | 0.0 | 0.00 | 0.00 | 0.00 | 69 | 1068.1 |
| 20260905202700 | 61 | 337 | 0.0 | 0.0 | 0.00 | 0.00 | 0.00 | 69 | 1068.0 |
| 20260905202552 | 61 | 315 | 2.6 | 0.0 | 0.00 | 0.00 | 0.00 | 69 | 1068.0 |
| 20260905202431 | 61 | 315 | 4.3 | 0.0 | 0.00 | 0.00 | 0.00 | 68 | 1068.0 |
| 20260905202318 | 61 | 315 | 6.1 | 0.0 | 0.00 | 0.00 | 0.00 | 68 | 1067.9 |
| 20260905202206 | 61 | 247 | 7.8 | 0.0 | 0.00 | 0.00 | 0.00 | 68 | 1067.9 |
| 20260905202053 | 61 | 337 | 2.6 | 0.0 | 0.00 | 0.00 | 0.00 | 68 | 1067.9 |
| 20260905201947 | 61 | 337 | 0.0 | 0.0 | 0.00 | 0.00 | 0.00 | 68 | 1067.9 |
| 20260905201818 | 61 | 315 | 2.6 | 0.0 | 0.00 | 0.00 | 0.00 | 68 | 1068.0 |
| 20260905201704 | 61 | 292 | 0.0 | 0.0 | 0.00 | 0.00 | 0.00 | 68 | 1067.9 |
| 20260905201538 | 61 | 315 | 0.0 | 0.0 | 0.00 | 0.00 | 0.00 | 68 | 1067.9 |
| 20260905201430 | 61 | 315 | 13.0 | 0.0 | 0.00 | 0.00 | 0.00 | 69 | 1068.0 |
| 20260905201309 | 61 | 337 | 6.1 | 0.0 | 0.00 | 0.00 | 0.00 | 69 | 1067.9 |
| 20260905201140 | 61 | 337 | 1.7 | 0.0 | 0.00 | 0.00 | 0.00 | 68 | 1067.8 |
| 20260905201019 | 61 | 292 | 2.6 | 0.0 | 0.00 | 0.00 | 0.00 | 68 | 1067.9 |
| 20260905200905 | 61 | 337 | 0.0 | 0.0 | 0.00 | 0.00 | 0.00 | 68 | 1067.9 |
| 20260905200744 | 61 | 292 | 10.4 | 0.0 | 0.00 | 0.00 | 0.00 | 69 | 1067.9 |
| 20260905200625 | 61 | 270 | 2.6 | 0.0 | 0.00 | 0.00 | 0.00 | 69 | 1067.8 |
| 20260905200518 | 61 | 337 | 0.0 | 0.0 | 0.00 | 0.00 | 0.00 | 68 | 1067.8 |
| 20260905200405 | 61 | 315 | 2.6 | 0.0 | 0.00 | 0.00 | 0.00 | 68 | 1067.8 |
| 20260905200254 | 61 | 292 | 5.2 | 0.0 | 0.00 | 0.00 | 0.00 | 68 | 1067.8 |
| 20260905200132 | 61 | 315 | 5.2 | 0.0 | 0.00 | 0.00 | 0.00 | 68 | 1067.8 |
| 20260905200011 | 61 | 337 | 5.2 | 0.0 | 0.00 | 0.00 | 0.00 | 67 | 1067.9 |
| 20260905195834 | 61 | 337 | 5.2 | 0.0 | 0.00 | 0.00 | 0.00 | 67 | 1067.9 |
| 20260905195711 | 61 | 315 | 3.5 | 0.0 | 0.00 | 0.00 | 0.00 | 69 | 1067.8 |
| 20260905195559 | 61 | 315 | 0.0 | 0.0 | 0.00 | 0.00 | 0.00 | 70 | 1067.9 |
| 20260905195446 | 61 | 337 | 0.0 | 0.0 | 0.00 | 0.00 | 0.00 | 69 | 1067.8 |
| 20260905195338 | 61 | 0 | 5.2 | 0.0 | 0.00 | 0.00 | 0.00 | 69 | 1067.8 |
| 20260905195228 | 61 | 337 | 1.7 | 0.0 | 0.00 | 0.00 | 0.00 | 69 | 1067.8 |
| 20260905195122 | 61 | 315 | 0.0 | 0.0 | 0.00 | 0.00 | 0.00 | 68 | 1067.8 |
| 20260905195008 | 61 | 270 | 5.2 | 0.0 | 0.00 | 0.00 | 0.00 | 67 | 1067.8 |
| 20260905194855 | 61 | 337 | 0.0 | 0.0 | 0.00 | 0.00 | 0.00 | 67 | 1067.8 |
| 20260905194736 | 61 | 0 | 0.0 | 0.0 | 0.00 | 0.00 | 0.00 | 67 | 1067.7 |
| 20260905194628 | 61 | 337 | 1.7 | 0.0 | 0.00 | 0.00 | 0.00 | 67 | 1067.7 |
| 20260905194459 | 61 | 292 | 5.2 | 0.0 | 0.00 | 0.00 | 0.00 | 67 | 1067.7 |
| 20260905194340 | 61 | 337 | 0.0 | 0.0 | 0.00 | 0.00 | 0.00 | 67 | 1067.7 |
| 20260905194225 | 61 | 315 | 0.0 | 0.0 | 0.00 | 0.00 | 0.00 | 67 | 1067.7 |
| 20260905194103 | 61 | 315 | 6.1 | 0.0 | 0.00 | 0.00 | 0.00 | 67 | 1067.7 |
| 20260905193936 | 61 | 270 | 4.3 | 0.0 | 0.00 | 0.00 | 0.00 | 66 | 1067.7 |
| 20260905193800 | 61 | 315 | 0.0 | 0.0 | 0.00 | 0.00 | 0.00 | 67 | 1067.7 |
| 20260905193647 | 61 | 315 | 3.5 | 0.0 | 0.00 | 0.00 | 0.00 | 67 | 1067.7 |
| 20260905193532 | 61 | 315 | 4.3 | 0.0 | 0.00 | 0.00 | 0.00 | 68 | 1067.5 |
| 20260905193409 | 61 | 315 | 5.2 | 0.0 | 0.00 | 0.00 | 0.00 | 69 | 1067.6 |
| 20260905193258 | 61 | 0 | 1.7 | 0.0 | 0.00 | 0.00 | 0.00 | 69 | 1067.5 |
| 20260905193151 | 61 | 292 | 2.6 | 0.0 | 0.00 | 0.00 | 0.00 | 69 | 1067.5 |
| 20260905193031 | 61 | 292 | 13.0 | 0.0 | 0.00 | 0.00 | 0.00 | 70 | 1067.6 |
| 20260905192924 | 61 | 315 | 2.6 | 0.0 | 0.00 | 0.00 | 0.00 | 70 | 1067.4 |
| 20260905192805 | 61 | 0 | 4.3 | 0.0 | 0.00 | 0.00 | 0.00 | 70 | 1067.4 |
| 20260905192651 | 61 | 337 | 0.0 | 0.0 | 0.00 | 0.00 | 0.00 | 70 | 1067.5 |
| 20260905192537 | 61 | 315 | 3.5 | 0.0 | 0.00 | 0.00 | 0.00 | 70 | 1067.5 |
| 20260905192416 | 61 | 292 | 7.0 | 0.0 | 0.00 | 0.00 | 0.00 | 71 | 1067.4 |
| 20260905192306 | 61 | 315 | 8.7 | 0.0 | 0.00 | 0.00 | 0.00 | 72 | 1067.4 |
| 20260905192158 | 61 | 22 | 2.6 | 0.0 | 0.00 | 0.00 | 0.00 | 72 | 1067.3 |
| 20260905192044 | 61 | 270 | 3.5 | 0.0 | 0.00 | 0.00 | 0.00 | 72 | 1067.4 |
| 20260905191916 | 61 | 337 | 10.4 | 0.0 | 0.00 | 0.00 | 0.00 | 72 | 1067.3 |
| 20260905191755 | 61 | 315 | 0.0 | 0.0 | 0.00 | 0.00 | 0.00 | 72 | 1067.4 |
| 20260905191640 | 61 | 337 | 5.2 | 0.0 | 0.00 | 0.00 | 0.00 | 72 | 1067.3 |
| 20260905191526 | 61 | 315 | 4.3 | 0.0 | 0.00 | 0.00 | 0.00 | 73 | 1067.2 |
| 20260905191413 | 61 | 337 | 7.8 | 0.0 | 0.00 | 0.00 | 0.00 | 73 | 1067.2 |
| 20260905191252 | 61 | 315 | 5.2 | 0.0 | 0.00 | 0.00 | 0.00 | 73 | 1067.2 |
| 20260905191139 | 61 | 0 | 6.1 | 0.0 | 0.00 | 0.00 | 0.00 | 74 | 1067.2 |
| 20260905191020 | 61 | 315 | 6.1 | 0.0 | 0.00 | 0.00 | 0.00 | 74 | 1067.3 |
| 20260905190913 | 61 | 337 | 5.2 | 0.0 | 0.00 | 0.00 | 0.00 | 74 | 1067.2 |
| 20260905190802 | 61 | 315 | 3.5 | 0.0 | 0.00 | 0.00 | 0.00 | 74 | 1067.2 |
| 20260905190655 | 61 | 315 | 2.6 | 0.0 | 0.00 | 0.00 | 0.00 | 74 | 1067.2 |
| 20260905190533 | 61 | 0 | 2.6 | 0.0 | 0.00 | 0.00 | 0.00 | 74 | 1067.2 |
| 20260905190413 | 61 | 315 | 5.2 | 0.0 | 0.00 | 0.00 | 0.00 | 74 | 1067.2 |
| 20260905190310 | 61 | 337 | 2.6 | 0.0 | 0.00 | 0.00 | 0.00 | 74 | 1067.1 |
| 20260905190155 | 61 | 337 | 5.2 | 0.0 | 0.00 | 0.00 | 0.00 | 74 | 1067.2 |
| 20260905190049 | 61 | 315 | 9.6 | 0.0 | 0.00 | 0.00 | 0.00 | 75 | 1067.2 |
| 20260905185927 | 61 | 270 | 0.0 | 0.0 | 0.00 | 0.00 | 0.00 | 75 | 1067.2 |
| 20260905185758 | 61 | 337 | 0.0 | 0.0 | 0.00 | 0.00 | 0.00 | 75 | 1067.2 |
| 20260905185630 | 61 | 0 | 0.0 | 0.0 | 0.00 | 0.00 | 0.00 | 74 | 1067.2 |
| 20260905185504 | 61 | 315 | 5.2 | 0.0 | 0.00 | 0.00 | 0.00 | 74 | 1067.2 |
| 20260905185350 | 61 | 337 | 5.2 | 0.0 | 0.00 | 0.00 | 0.00 | 74 | 1067.2 |
| 20260905185227 | 61 | 337 | 5.2 | 0.0 | 0.00 | 0.00 | 0.00 | 75 | 1067.1 |
| 20260905185057 | 61 | 337 | 3.5 | 0.0 | 0.00 | 0.00 | 0.00 | 76 | 1067.1 |
| 20260905184951 | 61 | 292 | 0.0 | 0.0 | 0.00 | 0.00 | 0.00 | 76 | 1067.2 |
| 20260905184838 | 61 | 0 | 10.4 | 0.0 | 0.00 | 0.00 | 0.00 | 76 | 1067.1 |
| 20260905184719 | 61 | 315 | 0.0 | 0.0 | 0.00 | 0.00 | 0.00 | 76 | 1067.1 |
| 20260905184614 | 62 | 337 | 3.5 | 0.0 | 0.00 | 0.00 | 0.00 | 76 | 1067.2 |
| 20260905184459 | 62 | 337 | 0.0 | 0.0 | 0.00 | 0.00 | 0.00 | 75 | 1067.2 |
| 20260905184353 | 62 | 315 | 3.5 | 0.0 | 0.00 | 0.00 | 0.00 | 75 | 1067.2 |
| 20260905184241 | 62 | 292 | 7.8 | 0.0 | 0.00 | 0.00 | 0.00 | 74 | 1067.1 |
| 20260905184135 | 62 | 292 | 5.2 | 0.0 | 0.00 | 0.00 | 0.00 | 74 | 1067.1 |
| 20260905184015 | 62 | 0 | 5.2 | 0.0 | 0.00 | 0.00 | 0.00 | 74 | 1067.0 |
| 20260905183904 | 62 | 337 | 1.7 | 0.0 | 0.00 | 0.00 | 0.00 | 74 | 1067.1 |
| 20260905183756 | 62 | 292 | 3.5 | 0.0 | 0.00 | 0.00 | 0.00 | 74 | 1067.0 |
| 20260905183634 | 62 | 337 | 6.1 | 0.0 | 0.00 | 0.00 | 0.00 | 74 | 1067.0 |
| 20260905183513 | 62 | 337 | 3.5 | 0.0 | 0.00 | 0.00 | 0.00 | 74 | 1066.9 |
| 20260905183355 | 62 | 337 | 1.7 | 0.0 | 0.00 | 0.00 | 0.00 | 74 | 1066.9 |
| 20260905183249 | 62 | 337 | 4.3 | 0.0 | 0.00 | 0.00 | 0.00 | 74 | 1066.9 |
| 20260905183135 | 61 | 315 | 9.6 | 0.0 | 0.00 | 0.00 | 0.00 | 75 | 1066.9 |
| 20260905183029 | 61 | 337 | 8.7 | 0.0 | 0.00 | 0.00 | 0.00 | 77 | 1066.9 |
| 20260905182917 | 61 | 315 | 4.3 | 0.0 | 0.00 | 0.00 | 0.00 | 77 | 1066.9 |
| 20260905182811 | 61 | 315 | 4.3 | 0.0 | 0.00 | 0.00 | 0.00 | 77 | 1066.8 |
| 20260905182649 | 61 | 337 | 5.2 | 0.0 | 0.00 | 0.00 | 0.00 | 78 | 1066.9 |
| 20260905182528 | 61 | 292 | 3.5 | 0.0 | 0.00 | 0.00 | 0.00 | 78 | 1066.8 |
| 20260905182358 | 61 | 0 | 3.5 | 0.0 | 0.00 | 0.00 | 0.00 | 78 | 1066.7 |
| 20260905182246 | 61 | 337 | 4.3 | 0.0 | 0.00 | 0.00 | 0.00 | 78 | 1066.8 |
| 20260905182126 | 61 | 292 | 0.0 | 0.0 | 0.00 | 0.00 | 0.00 | 78 | 1066.8 |
| 20260905182020 | 61 | 315 | 0.0 | 0.0 | 0.00 | 0.00 | 0.00 | 78 | 1066.8 |
| 20260905181857 | 61 | 337 | 5.2 | 0.0 | 0.00 | 0.00 | 0.00 | 78 | 1066.7 |
| 20260905181751 | 61 | 315 | 7.0 | 0.0 | 0.00 | 0.00 | 0.00 | 78 | 1066.7 |
| 20260905181620 | 61 | 247 | 4.3 | 0.0 | 0.00 | 0.00 | 0.00 | 78 | 1066.6 |
| 20260905181450 | 61 | 315 | 10.4 | 0.0 | 0.00 | 0.00 | 0.00 | 78 | 1066.7 |
| 20260905181329 | 61 | 292 | 5.2 | 0.0 | 0.00 | 0.00 | 0.00 | 78 | 1066.7 |
| 20260905181208 | 61 | 292 | 5.2 | 0.0 | 0.00 | 0.00 | 0.00 | 78 | 1066.6 |
| 20260905181048 | 61 | 337 | 6.1 | 0.0 | 0.00 | 0.00 | 0.00 | 78 | 1066.6 |
| 20260905180942 | 61 | 315 | 3.5 | 0.0 | 0.00 | 0.00 | 0.00 | 78 | 1066.7 |
| 20260905180828 | 60 | 0 | 10.4 | 0.0 | 0.00 | 0.00 | 0.00 | 79 | 1066.7 |
| 20260905180714 | 61 | 292 | 1.7 | 0.0 | 0.00 | 0.00 | 0.00 | 79 | 1066.6 |
| 20260905180600 | 60 | 0 | 3.5 | 0.0 | 0.00 | 0.00 | 0.00 | 79 | 1066.6 |
| 20260905180448 | 60 | 337 | 4.3 | 0.0 | 0.00 | 0.00 | 0.00 | 79 | 1066.6 |
| 20260905180334 | 60 | 270 | 3.5 | 0.0 | 0.00 | 0.00 | 0.00 | 79 | 1066.6 |
| 20260905180220 | 60 | 270 | 7.0 | 0.0 | 0.00 | 0.00 | 0.00 | 78 | 1066.6 |
| 20260905180108 | 60 | 315 | 5.2 | 0.0 | 0.00 | 0.00 | 0.00 | 78 | 1066.6 |
| 20260905175953 | 61 | 292 | 3.5 | 0.0 | 0.00 | 0.00 | 0.00 | 77 | 1066.5 |
| 20260905175833 | 61 | 337 | 0.0 | 0.0 | 0.00 | 0.00 | 0.00 | 76 | 1066.5 |
| 20260905175729 | 61 | 337 | 0.0 | 0.0 | 0.00 | 0.00 | 0.00 | 75 | 1066.5 |
| 20260905175613 | 62 | 315 | 4.3 | 0.0 | 0.00 | 0.00 | 0.00 | 74 | 1066.5 |
| 20260905175452 | 62 | 0 | 3.5 | 0.0 | 0.00 | 0.00 | 0.00 | 73 | 1066.5 |
| 20260905175334 | 63 | 337 | 7.8 | 0.0 | 0.00 | 0.00 | 0.00 | 73 | 1066.5 |
| 20260905175219 | 63 | 315 | 3.5 | 0.0 | 0.00 | 0.00 | 0.00 | 72 | 1066.5 |
| 20260905175113 | 63 | 337 | 5.2 | 0.0 | 0.00 | 0.00 | 0.00 | 72 | 1066.5 |
| 20260905174951 | 63 | 315 | 7.8 | 0.0 | 0.00 | 0.00 | 0.00 | 71 | 1066.5 |
| 20260905174838 | 63 | 270 | 9.6 | 0.0 | 0.00 | 0.00 | 0.00 | 70 | 1066.5 |
| 20260905174719 | 63 | 315 | 4.3 | 0.0 | 0.00 | 0.00 | 0.00 | 70 | 1066.4 |
| 20260905174612 | 63 | 315 | 0.0 | 0.0 | 0.00 | 0.00 | 0.00 | 69 | 1066.4 |
| 20260905174443 | 63 | 0 | 9.6 | 0.0 | 0.00 | 0.00 | 0.00 | 69 | 1066.4 |
| 20260905174324 | 63 | 180 | 5.2 | 0.0 | 0.00 | 0.00 | 0.00 | 68 | 1066.5 |
| 20260905174218 | 63 | 247 | 5.2 | 0.0 | 0.00 | 0.00 | 0.00 | 68 | 1066.3 |
| 20260905174112 | 63 | 292 | 14.8 | 0.0 | 0.00 | 0.00 | 0.00 | 68 | 1066.4 |
| 20260905173950 | 63 | 315 | 0.0 | 0.0 | 0.00 | 0.00 | 0.00 | 68 | 1066.4 |
| 20260905173832 | 63 | 22 | 3.5 | 0.0 | 0.00 | 0.00 | 0.00 | 68 | 1066.4 |
| 20260905173726 | 63 | 315 | 11.3 | 0.0 | 0.00 | 0.00 | 0.00 | 69 | 1066.3 |
| 20260905173613 | 63 | 337 | 4.3 | 0.0 | 0.00 | 0.00 | 0.00 | 69 | 1066.3 |
| 20260905173459 | 63 | 337 | 0.0 | 0.0 | 0.00 | 0.00 | 0.00 | 69 | 1066.3 |
| 20260905173339 | 63 | 337 | 1.7 | 0.0 | 0.00 | 0.00 | 0.00 | 69 | 1066.3 |
| 20260905173231 | 64 | 315 | 3.5 | 0.0 | 0.00 | 0.00 | 0.00 | 68 | 1066.3 |
| 20260905173110 | 63 | 315 | 3.5 | 0.0 | 0.00 | 0.00 | 0.00 | 68 | 1066.3 |
| 20260905172941 | 64 | 315 | 5.2 | 0.0 | 0.00 | 0.00 | 0.00 | 68 | 1066.3 |
| 20260905172828 | 64 | 0 | 3.5 | 0.0 | 0.00 | 0.00 | 0.00 | 67 | 1066.3 |
| 20260905172724 | 64 | 292 | 0.0 | 0.0 | 0.00 | 0.00 | 0.00 | 67 | 1066.4 |
| 20260905172610 | 64 | 315 | 0.0 | 0.0 | 0.00 | 0.00 | 0.00 | 67 | 1066.4 |
| 20260905172449 | 64 | 0 | 5.2 | 0.0 | 0.00 | 0.00 | 0.00 | 67 | 1066.3 |
| 20260905172344 | 64 | 337 | 4.3 | 0.0 | 0.00 | 0.00 | 0.00 | 68 | 1066.3 |
| 20260905172230 | 64 | 337 | 4.3 | 0.0 | 0.00 | 0.00 | 0.00 | 69 | 1066.3 |
| 20260905172101 | 64 | 0 | 7.0 | 0.0 | 0.00 | 0.00 | 0.00 | 69 | 1066.3 |
| 20260905171940 | 64 | 315 | 4.3 | 0.0 | 0.00 | 0.00 | 0.00 | 68 | 1066.3 |
| 20260905171821 | 64 | 315 | 7.8 | 0.0 | 0.00 | 0.00 | 0.00 | 68 | 1066.3 |
| 20260905171714 | 64 | 0 | 7.0 | 0.0 | 0.00 | 0.00 | 0.00 | 68 | 1066.2 |
| 20260905171608 | 64 | 337 | 5.2 | 0.0 | 0.00 | 0.00 | 0.00 | 68 | 1066.3 |
| 20260905171456 | 64 | 337 | 5.2 | 0.0 | 0.00 | 0.00 | 0.00 | 68 | 1066.2 |
| 20260905171351 | 64 | 315 | 5.2 | 0.0 | 0.00 | 0.00 | 0.00 | 67 | 1066.2 |
| 20260905171231 | 64 | 315 | 11.3 | 0.0 | 0.00 | 0.00 | 0.00 | 67 | 1066.1 |
| 20260905171115 | 64 | 337 | 3.5 | 0.0 | 0.00 | 0.00 | 0.00 | 67 | 1066.0 |
| 20260905170956 | 64 | 315 | 3.5 | 0.0 | 0.00 | 0.00 | 0.00 | 67 | 1066.0 |
| 20260905170850 | 64 | 0 | 9.6 | 0.0 | 0.00 | 0.00 | 0.00 | 67 | 1066.0 |
| 20260905170737 | 64 | 315 | 10.4 | 0.0 | 0.00 | 0.00 | 0.00 | 66 | 1065.9 |
| 20260905170618 | 64 | 337 | 4.3 | 0.0 | 0.00 | 0.00 | 0.00 | 66 | 1066.0 |
| 20260905170456 | 65 | 270 | 10.4 | 0.0 | 0.00 | 0.00 | 0.00 | 66 | 1066.0 |
| 20260905170335 | 65 | 337 | 5.2 | 0.0 | 0.00 | 0.00 | 0.00 | 66 | 1066.0 |
| 20260905170208 | 65 | 292 | 7.0 | 0.0 | 0.00 | 0.00 | 0.00 | 66 | 1066.0 |
| 20260905165958 | 65 | 292 | 0.0 | 0.0 | 0.00 | 0.00 | 0.00 | 66 | 1065.9 |
| 20260905165850 | 65 | 337 | 8.7 | 0.0 | 0.00 | 0.00 | 0.00 | 66 | 1065.9 |
| 20260905165738 | 65 | 292 | 0.0 | 0.0 | 0.00 | 0.00 | 0.00 | 67 | 1065.9 |
| 20260905165627 | 65 | 337 | 5.2 | 0.0 | 0.00 | 0.00 | 0.00 | 67 | 1065.8 |
| 20260905165519 | 65 | 337 | 8.7 | 0.0 | 0.00 | 0.00 | 0.00 | 68 | 1065.9 |
| 20260905165359 | 65 | 337 | 2.6 | 0.0 | 0.00 | 0.00 | 0.00 | 68 | 1065.9 |
| 20260905165256 | 65 | 337 | 8.7 | 0.0 | 0.00 | 0.00 | 0.00 | 68 | 1066.1 |
| 20260905165148 | 66 | 315 | 0.0 | 0.0 | 0.00 | 0.00 | 0.00 | 68 | 1066.0 |
| 20260905165027 | 66 | 0 | 3.5 | 0.0 | 0.00 | 0.00 | 0.00 | 68 | 1065.9 |
| 20260905164905 | 66 | 292 | 2.6 | 0.0 | 0.00 | 0.00 | 0.00 | 67 | 1065.8 |
| 20260905164752 | 66 | 292 | 11.3 | 0.0 | 0.00 | 0.00 | 0.00 | 67 | 1065.8 |
| 20260905164631 | 66 | 315 | 2.6 | 0.0 | 0.00 | 0.00 | 0.00 | 67 | 1065.8 |
| 20260905164520 | 65 | 292 | 0.0 | 0.0 | 0.00 | 0.00 | 0.00 | 67 | 1065.7 |
| 20260905164413 | 66 | 292 | 2.6 | 0.0 | 0.00 | 0.00 | 0.00 | 66 | 1065.7 |
| 20260905164300 | 65 | 337 | 9.6 | 0.0 | 0.00 | 0.00 | 0.00 | 66 | 1065.7 |
| 20260905164149 | 66 | 0 | 4.3 | 0.0 | 0.00 | 0.00 | 0.00 | 67 | 1065.7 |
| 20260905164021 | 66 | 315 | 5.2 | 0.0 | 0.00 | 0.00 | 0.00 | 68 | 1065.7 |
| 20260905163908 | 66 | 45 | 8.7 | 0.0 | 0.00 | 0.00 | 0.00 | 67 | 1065.7 |
| 20260905163754 | 66 | 292 | 6.1 | 0.0 | 0.00 | 0.00 | 0.00 | 66 | 1065.8 |
| 20260905163630 | 66 | 292 | 4.3 | 0.0 | 0.00 | 0.00 | 0.00 | 66 | 1065.7 |
| 20260905163519 | 66 | 337 | 4.3 | 0.0 | 0.00 | 0.00 | 0.00 | 67 | 1065.8 |
| 20260905163404 | 66 | 315 | 7.0 | 0.0 | 0.00 | 0.00 | 0.00 | 67 | 1065.7 |
| 20260905163243 | 66 | 292 | 4.3 | 0.0 | 0.00 | 0.00 | 0.00 | 67 | 1065.7 |
| 20260905163122 | 66 | 45 | 0.0 | 0.0 | 0.00 | 0.00 | 0.00 | 67 | 1065.7 |
| 20260905163009 | 66 | 337 | 0.0 | 0.0 | 0.00 | 0.00 | 0.00 | 66 | 1065.7 |
| 20260905162855 | 66 | 315 | 14.8 | 0.0 | 0.00 | 0.00 | 0.00 | 66 | 1065.6 |
| 20260905162749 | 66 | 0 | 7.8 | 0.0 | 0.00 | 0.00 | 0.00 | 66 | 1065.7 |
| 20260905162644 | 66 | 315 | 6.1 | 0.0 | 0.00 | 0.00 | 0.00 | 66 | 1065.7 |
| 20260905162522 | 66 | 0 | 5.2 | 0.0 | 0.00 | 0.00 | 0.00 | 66 | 1065.7 |
| 20260905162401 | 66 | 315 | 6.1 | 0.0 | 0.00 | 0.00 | 0.00 | 66 | 1065.6 |
| 20260905162255 | 66 | 270 | 6.1 | 0.0 | 0.00 | 0.00 | 0.00 | 67 | 1065.6 |
| 20260905162142 | 66 | 270 | 5.2 | 0.0 | 0.00 | 0.00 | 0.00 | 67 | 1065.6 |
| 20260905162022 | 66 | 315 | 9.6 | 0.0 | 0.00 | 0.00 | 0.00 | 67 | 1065.6 |
| 20260905161908 | 66 | 292 | 0.0 | 0.0 | 0.00 | 0.00 | 0.00 | 67 | 1065.5 |
| 20260905161755 | 66 | 337 | 0.0 | 0.0 | 0.00 | 0.00 | 0.00 | 67 | 1065.5 |
| 20260905161634 | 66 | 0 | 3.5 | 0.0 | 0.00 | 0.00 | 0.00 | 67 | 1065.5 |
| 20260905161521 | 66 | 292 | 13.0 | 0.0 | 0.00 | 0.00 | 0.00 | 67 | 1065.5 |
| 20260905161416 | 66 | 292 | 8.7 | 0.0 | 0.00 | 0.00 | 0.00 | 67 | 1065.5 |
| 20260905161312 | 66 | 270 | 3.5 | 0.0 | 0.00 | 0.00 | 0.00 | 67 | 1065.5 |
| 20260905161204 | 66 | 315 | 0.0 | 0.0 | 0.00 | 0.00 | 0.00 | 66 | 1065.5 |
| 20260905161045 | 66 | 315 | 5.2 | 0.0 | 0.00 | 0.00 | 0.00 | 66 | 1065.5 |
| 20260905160934 | 66 | 315 | 12.2 | 0.0 | 0.00 | 0.00 | 0.00 | 67 | 1065.4 |
| 20260905160827 | 66 | 0 | 5.2 | 0.0 | 0.00 | 0.00 | 0.00 | 67 | 1065.4 |
| 20260905160723 | 66 | 315 | 8.7 | 0.0 | 0.00 | 0.00 | 0.00 | 67 | 1065.4 |
| 20260905160616 | 66 | 315 | 13.0 | 0.0 | 0.00 | 0.00 | 0.00 | 67 | 1065.3 |
| 20260905160455 | 66 | 315 | 5.2 | 0.0 | 0.00 | 0.00 | 0.00 | 68 | 1065.4 |
| 20260905160333 | 66 | 292 | 9.6 | 0.0 | 0.00 | 0.00 | 0.00 | 67 | 1065.3 |
| 20260905160211 | 66 | 315 | 0.0 | 0.0 | 0.00 | 0.00 | 0.00 | 67 | 1065.4 |
| 20260905160052 | 66 | 292 | 7.8 | 0.0 | 0.00 | 0.00 | 0.00 | 67 | 1065.3 |
| 20260905155949 | 66 | 202 | 1.7 | 0.0 | 0.00 | 0.00 | 0.00 | 68 | 1065.4 |
| 20260905155841 | 66 | 315 | 0.0 | 0.0 | 0.00 | 0.00 | 0.00 | 68 | 1065.4 |
| 20260905155727 | 66 | 315 | 4.3 | 0.0 | 0.00 | 0.00 | 0.00 | 68 | 1065.4 |
| 20260905155615 | 66 | 315 | 4.3 | 0.0 | 0.00 | 0.00 | 0.00 | 68 | 1065.4 |
| 20260905155502 | 66 | 337 | 11.3 | 0.0 | 0.00 | 0.00 | 0.00 | 68 | 1065.4 |
| 20260905155357 | 66 | 337 | 0.9 | 0.0 | 0.00 | 0.00 | 0.00 | 68 | 1065.3 |
| 20260905155244 | 66 | 337 | 5.2 | 0.0 | 0.00 | 0.00 | 0.00 | 68 | 1065.3 |
| 20260905155122 | 66 | 337 | 3.5 | 0.0 | 0.00 | 0.00 | 0.00 | 67 | 1065.2 |
| 20260905155001 | 66 | 270 | 0.0 | 0.0 | 0.00 | 0.00 | 0.00 | 67 | 1065.3 |
| 20260905154848 | 66 | 0 | 5.2 | 0.0 | 0.00 | 0.00 | 0.00 | 67 | 1065.1 |
| 20260905154734 | 66 | 45 | 5.2 | 0.0 | 0.00 | 0.00 | 0.00 | 67 | 1065.2 |
| 20260905154614 | 67 | 315 | 6.1 | 0.0 | 0.00 | 0.00 | 0.00 | 66 | 1065.3 |
| 20260905154459 | 67 | 270 | 5.2 | 0.0 | 0.00 | 0.00 | 0.00 | 65 | 1065.2 |
| 20260905154346 | 67 | 0 | 4.3 | 0.0 | 0.00 | 0.00 | 0.00 | 65 | 1065.1 |
| 20260905154235 | 67 | 337 | 0.0 | 0.0 | 0.00 | 0.00 | 0.00 | 64 | 1065.1 |
| 20260905154129 | 67 | 292 | 0.0 | 0.0 | 0.00 | 0.00 | 0.00 | 63 | 1065.0 |
| 20260905154015 | 68 | 337 | 3.5 | 0.0 | 0.00 | 0.00 | 0.00 | 63 | 1064.9 |
| 20260905153902 | 68 | 315 | 6.1 | 0.0 | 0.00 | 0.00 | 0.00 | 62 | 1065.0 |
| 20260905153741 | 68 | 292 | 7.0 | 0.0 | 0.00 | 0.00 | 0.00 | 62 | 1064.9 |
| 20260905153627 | 69 | 292 | 2.6 | 0.0 | 0.00 | 0.00 | 0.00 | 63 | 1064.9 |
| 20260905153515 | 69 | 0 | 7.8 | 0.0 | 0.00 | 0.00 | 0.00 | 63 | 1064.8 |
| 20260905153409 | 69 | 292 | 5.2 | 0.0 | 0.00 | 0.00 | 0.00 | 63 | 1064.8 |
| 20260905153258 | 69 | 292 | 7.0 | 0.0 | 0.00 | 0.00 | 0.00 | 63 | 1064.9 |
| 20260905153151 | 70 | 337 | 2.6 | 0.0 | 0.00 | 0.00 | 0.00 | 62 | 1064.9 |
| 20260905153030 | 70 | 270 | 6.1 | 0.0 | 0.00 | 0.00 | 0.00 | 62 | 1064.8 |
| 20260905152916 | 70 | 315 | 12.2 | 0.0 | 0.00 | 0.00 | 0.00 | 62 | 1064.8 |
| 20260905152757 | 70 | 292 | 7.0 | 0.0 | 0.00 | 0.00 | 0.00 | 62 | 1064.8 |
| 20260905152650 | 70 | 337 | 3.5 | 0.0 | 0.00 | 0.00 | 0.00 | 61 | 1064.8 |
| 20260905152530 | 70 | 337 | 5.2 | 0.0 | 0.00 | 0.00 | 0.00 | 61 | 1064.8 |
| 20260905152424 | 70 | 315 | 2.6 | 0.0 | 0.00 | 0.00 | 0.00 | 61 | 1064.8 |
| 20260905152311 | 70 | 0 | 0.0 | 0.0 | 0.00 | 0.00 | 0.00 | 62 | 1064.8 |
| 20260905152152 | 70 | 337 | 10.4 | 0.0 | 0.00 | 0.00 | 0.00 | 63 | 1064.8 |
| 20260905152046 | 70 | 337 | 8.7 | 0.0 | 0.00 | 0.00 | 0.00 | 62 | 1064.8 |
| 20260905151933 | 70 | 337 | 0.0 | 0.0 | 0.00 | 0.00 | 0.00 | 61 | 1064.7 |
| 20260905151827 | 70 | 337 | 6.1 | 0.0 | 0.00 | 0.00 | 0.00 | 61 | 1064.8 |
| 20260905151705 | 70 | 247 | 4.3 | 0.0 | 0.00 | 0.00 | 0.00 | 62 | 1064.8 |
| 20260905151545 | 70 | 270 | 3.5 | 0.0 | 0.00 | 0.00 | 0.00 | 62 | 1064.7 |
| 20260905151440 | 70 | 337 | 7.8 | 0.0 | 0.00 | 0.00 | 0.00 | 62 | 1064.7 |
| 20260905151335 | 70 | 270 | 4.3 | 0.0 | 0.00 | 0.00 | 0.00 | 63 | 1064.8 |
| 20260905151230 | 69 | 270 | 0.0 | 0.0 | 0.00 | 0.00 | 0.00 | 63 | 1064.7 |
| 20260905151124 | 69 | 337 | 5.2 | 0.0 | 0.00 | 0.00 | 0.00 | 63 | 1064.7 |
| 20260905150956 | 69 | 292 | 7.8 | 0.0 | 0.00 | 0.00 | 0.00 | 64 | 1064.7 |
| 20260905150851 | 69 | 315 | 13.0 | 0.0 | 0.00 | 0.00 | 0.00 | 64 | 1064.7 |
| 20260905150736 | 69 | 292 | 7.0 | 0.0 | 0.00 | 0.00 | 0.00 | 64 | 1064.7 |
| 20260905150607 | 69 | 270 | 6.1 | 0.0 | 0.00 | 0.00 | 0.00 | 64 | 1064.7 |
| 20260905150455 | 69 | 315 | 0.0 | 0.0 | 0.00 | 0.00 | 0.00 | 64 | 1064.6 |
| 20260905150343 | 69 | 0 | 8.7 | 0.0 | 0.00 | 0.00 | 0.00 | 64 | 1064.7 |
| 20260905150229 | 69 | 337 | 0.0 | 0.0 | 0.00 | 0.00 | 0.00 | 63 | 1064.7 |
| 20260905150124 | 69 | 270 | 5.2 | 0.0 | 0.00 | 0.00 | 0.00 | 64 | 1064.6 |
| 20260905150003 | 69 | 337 | 4.3 | 0.0 | 0.00 | 0.00 | 0.00 | 64 | 1064.7 |
| 20260905145843 | 69 | 315 | 9.6 | 0.0 | 0.00 | 0.00 | 0.00 | 63 | 1064.6 |
| 20260905145713 | 69 | 315 | 2.6 | 0.0 | 0.00 | 0.00 | 0.00 | 64 | 1064.6 |
| 20260905145552 | 69 | 337 | 5.2 | 0.0 | 0.00 | 0.00 | 0.00 | 64 | 1064.6 |
| 20260905145445 | 69 | 292 | 0.0 | 0.0 | 0.00 | 0.00 | 0.00 | 63 | 1064.6 |
| 20260905145331 | 69 | 292 | 10.4 | 0.0 | 0.00 | 0.00 | 0.00 | 64 | 1064.6 |
| 20260905145204 | 69 | 337 | 5.2 | 0.0 | 0.00 | 0.00 | 0.00 | 64 | 1064.5 |
| 20260905145100 | 69 | 337 | 12.2 | 0.0 | 0.00 | 0.00 | 0.00 | 65 | 1064.6 |
| 20260905144952 | 68 | 270 | 7.0 | 0.0 | 0.00 | 0.00 | 0.00 | 64 | 1064.5 |
| 20260905144839 | 68 | 292 | 12.2 | 0.0 | 0.00 | 0.00 | 0.00 | 64 | 1064.5 |
| 20260905144734 | 68 | 337 | 0.0 | 0.0 | 0.00 | 0.00 | 0.00 | 64 | 1064.6 |
| 20260905144612 | 68 | 292 | 0.0 | 0.0 | 0.00 | 0.00 | 0.00 | 64 | 1064.6 |
| 20260905144459 | 68 | 315 | 5.2 | 0.0 | 0.00 | 0.00 | 0.00 | 63 | 1064.5 |
| 20260905144346 | 68 | 270 | 8.7 | 0.0 | 0.00 | 0.00 | 0.00 | 63 | 1064.4 |
| 20260905144241 | 68 | 315 | 7.8 | 0.0 | 0.00 | 0.00 | 0.00 | 64 | 1064.4 |
| 20260905144130 | 69 | 315 | 9.6 | 0.0 | 0.00 | 0.00 | 0.00 | 63 | 1064.4 |
| 20260905144015 | 69 | 315 | 4.3 | 0.0 | 0.00 | 0.00 | 0.00 | 63 | 1064.4 |
| 20260905143854 | 69 | 337 | 7.8 | 0.0 | 0.00 | 0.00 | 0.00 | 63 | 1064.4 |
| 20260905143748 | 69 | 292 | 8.7 | 0.0 | 0.00 | 0.00 | 0.00 | 63 | 1064.3 |
| 20260905143629 | 69 | 315 | 6.1 | 0.0 | 0.00 | 0.00 | 0.00 | 64 | 1064.3 |
| 20260905143514 | 69 | 0 | 4.3 | 0.0 | 0.00 | 0.00 | 0.00 | 63 | 1064.3 |
| 20260905143402 | 69 | 270 | 15.6 | 0.0 | 0.00 | 0.00 | 0.00 | 63 | 1064.2 |
| 20260905143257 | 69 | 247 | 3.5 | 0.0 | 0.00 | 0.00 | 0.00 | 63 | 1064.4 |
| 20260905143152 | 69 | 315 | 16.5 | 0.0 | 0.00 | 0.00 | 0.00 | 64 | 1064.3 |
| 20260905143046 | 68 | 337 | 5.2 | 0.0 | 0.00 | 0.00 | 0.00 | 64 | 1064.2 |
| 20260905142941 | 68 | 315 | 5.2 | 0.0 | 0.00 | 0.00 | 0.00 | 64 | 1064.3 |
| 20260905142820 | 68 | 315 | 4.3 | 0.0 | 0.00 | 0.00 | 0.00 | 64 | 1064.2 |
| 20260905142659 | 68 | 315 | 9.6 | 0.0 | 0.00 | 0.00 | 0.00 | 65 | 1064.2 |
| 20260905142554 | 68 | 337 | 0.0 | 0.0 | 0.00 | 0.00 | 0.00 | 65 | 1064.2 |
| 20260905142448 | 68 | 315 | 10.4 | 0.0 | 0.00 | 0.00 | 0.00 | 65 | 1064.2 |
| 20260905142335 | 68 | 337 | 4.3 | 0.0 | 0.00 | 0.00 | 0.00 | 65 | 1064.2 |
| 20260905142221 | 68 | 315 | 5.2 | 0.0 | 0.00 | 0.00 | 0.00 | 65 | 1064.2 |
| 20260905142109 | 68 | 315 | 8.7 | 0.0 | 0.00 | 0.00 | 0.00 | 64 | 1064.1 |
| 20260905141956 | 68 | 22 | 4.3 | 0.0 | 0.00 | 0.00 | 0.00 | 64 | 1064.2 |
| 20260905141850 | 68 | 270 | 7.0 | 0.0 | 0.00 | 0.00 | 0.00 | 63 | 1064.2 |
| 20260905141721 | 68 | 315 | 9.6 | 0.0 | 0.00 | 0.00 | 0.00 | 64 | 1064.2 |
| 20260905141608 | 68 | 315 | 4.3 | 0.0 | 0.00 | 0.00 | 0.00 | 63 | 1064.2 |
| 20260905141504 | 68 | 337 | 4.3 | 0.0 | 0.00 | 0.00 | 0.00 | 63 | 1064.2 |
| 20260905141349 | 68 | 292 | 7.8 | 0.0 | 0.00 | 0.00 | 0.00 | 63 | 1064.2 |
| 20260905141236 | 68 | 270 | 5.2 | 0.0 | 0.00 | 0.00 | 0.00 | 64 | 1064.1 |
| 20260905141123 | 68 | 292 | 0.0 | 0.0 | 0.00 | 0.00 | 0.00 | 64 | 1064.1 |
| 20260905141004 | 67 | 225 | 6.1 | 0.0 | 0.00 | 0.00 | 0.00 | 63 | 1064.1 |
| 20260905140858 | 67 | 0 | 21.7 | 0.0 | 0.00 | 0.00 | 0.00 | 63 | 1064.1 |
| 20260905140752 | 68 | 45 | 7.8 | 0.0 | 0.00 | 0.00 | 0.00 | 63 | 1064.1 |
| 20260905140632 | 68 | 247 | 9.6 | 0.0 | 0.00 | 0.00 | 0.00 | 63 | 1064.1 |
| 20260905140526 | 68 | 292 | 10.4 | 0.0 | 0.00 | 0.00 | 0.00 | 63 | 1064.2 |
| 20260905140413 | 68 | 292 | 10.4 | 0.0 | 0.00 | 0.00 | 0.00 | 64 | 1064.1 |
| 20260905140308 | 68 | 292 | 10.4 | 0.0 | 0.00 | 0.00 | 0.00 | 64 | 1064.0 |
| 20260905140146 | 68 | 337 | 7.0 | 0.0 | 0.00 | 0.00 | 0.00 | 64 | 1064.0 |
| 20260905140034 | 68 | 22 | 5.2 | 0.0 | 0.00 | 0.00 | 0.00 | 64 | 1064.0 |
| 20260905135921 | 67 | 337 | 0.0 | 0.0 | 0.00 | 0.00 | 0.00 | 63 | 1064.0 |
| 20260905135815 | 68 | 315 | 2.6 | 0.0 | 0.00 | 0.00 | 0.00 | 63 | 1063.9 |
| 20260905135654 | 67 | 292 | 6.1 | 0.0 | 0.00 | 0.00 | 0.00 | 64 | 1063.9 |
| 20260905135533 | 67 | 315 | 4.3 | 0.0 | 0.00 | 0.00 | 0.00 | 64 | 1063.9 |
| 20260905135422 | 67 | 337 | 7.0 | 0.0 | 0.00 | 0.00 | 0.00 | 64 | 1064.0 |
| 20260905135300 | 67 | 337 | 10.4 | 0.0 | 0.00 | 0.00 | 0.00 | 65 | 1064.0 |
| 20260905135147 | 67 | 270 | 7.0 | 0.0 | 0.00 | 0.00 | 0.00 | 65 | 1063.8 |
| 20260905135035 | 67 | 315 | 5.2 | 0.0 | 0.00 | 0.00 | 0.00 | 66 | 1063.7 |
| 20260905134920 | 67 | 315 | 0.0 | 0.0 | 0.00 | 0.00 | 0.00 | 66 | 1063.9 |
| 20260905134806 | 67 | 225 | 0.0 | 0.0 | 0.00 | 0.00 | 0.00 | 65 | 1063.9 |
| 20260905134653 | 67 | 337 | 0.9 | 0.0 | 0.00 | 0.00 | 0.00 | 65 | 1063.7 |
| 20260905134549 | 67 | 247 | 7.0 | 0.0 | 0.00 | 0.00 | 0.00 | 65 | 1063.8 |
| 20260905134443 | 67 | 315 | 5.2 | 0.0 | 0.00 | 0.00 | 0.00 | 65 | 1063.7 |
| 20260905134337 | 67 | 247 | 6.1 | 0.0 | 0.00 | 0.00 | 0.00 | 65 | 1063.7 |
| 20260905134218 | 67 | 270 | 3.5 | 0.0 | 0.00 | 0.00 | 0.00 | 67 | 1063.8 |
| 20260905134111 | 67 | 247 | 5.2 | 0.0 | 0.00 | 0.00 | 0.00 | 67 | 1063.8 |
| 20260905134007 | 67 | 270 | 14.8 | 0.0 | 0.00 | 0.00 | 0.00 | 68 | 1063.8 |
| 20260905133900 | 66 | 337 | 7.0 | 0.0 | 0.00 | 0.00 | 0.00 | 67 | 1063.8 |
| 20260905133739 | 66 | 292 | 13.9 | 0.0 | 0.00 | 0.00 | 0.00 | 68 | 1063.6 |
| 20260905133626 | 66 | 270 | 4.3 | 0.0 | 0.00 | 0.00 | 0.00 | 69 | 1063.7 |
| 20260905133505 | 66 | 337 | 5.2 | 0.0 | 0.00 | 0.00 | 0.00 | 70 | 1063.8 |
| 20260905133352 | 66 | 315 | 6.1 | 0.0 | 0.00 | 0.00 | 0.00 | 70 | 1063.7 |
| 20260905133249 | 66 | 292 | 4.3 | 0.0 | 0.00 | 0.00 | 0.00 | 70 | 1063.7 |
| 20260905133142 | 66 | 337 | 0.0 | 0.0 | 0.00 | 0.00 | 0.00 | 69 | 1063.7 |
| 20260905133036 | 66 | 315 | 6.1 | 0.0 | 0.00 | 0.00 | 0.00 | 69 | 1063.7 |
| 20260905132926 | 66 | 315 | 13.9 | 0.0 | 0.00 | 0.00 | 0.00 | 68 | 1063.7 |
| 20260905132819 | 66 | 315 | 9.6 | 0.0 | 0.00 | 0.00 | 0.00 | 67 | 1063.7 |
| 20260905132657 | 66 | 0 | 5.2 | 0.0 | 0.00 | 0.00 | 0.00 | 68 | 1063.7 |
| 20260905132545 | 66 | 292 | 9.6 | 0.0 | 0.00 | 0.00 | 0.00 | 67 | 1063.6 |
| 20260905132439 | 67 | 315 | 6.1 | 0.0 | 0.00 | 0.00 | 0.00 | 68 | 1063.6 |
| 20260905132326 | 67 | 270 | 7.8 | 0.0 | 0.00 | 0.00 | 0.00 | 68 | 1063.7 |
| 20260905132205 | 67 | 22 | 6.1 | 0.0 | 0.00 | 0.00 | 0.00 | 69 | 1063.6 |
| 20260905132052 | 67 | 0 | 7.8 | 0.0 | 0.00 | 0.00 | 0.00 | 68 | 1063.6 |
| 20260905131947 | 66 | 315 | 3.5 | 0.0 | 0.00 | 0.00 | 0.00 | 69 | 1063.7 |
| 20260905131825 | 66 | 292 | 5.2 | 0.0 | 0.00 | 0.00 | 0.00 | 68 | 1063.7 |
| 20260905131713 | 66 | 270 | 5.2 | 0.0 | 0.00 | 0.00 | 0.00 | 68 | 1063.7 |
| 20260905131600 | 66 | 315 | 5.2 | 0.0 | 0.00 | 0.00 | 0.00 | 67 | 1063.6 |
| 20260905131438 | 66 | 315 | 4.3 | 0.0 | 0.00 | 0.00 | 0.00 | 67 | 1063.5 |
| 20260905131327 | 66 | 292 | 13.9 | 0.0 | 0.00 | 0.00 | 0.00 | 67 | 1063.6 |
| 20260905131220 | 66 | 337 | 13.9 | 0.0 | 0.00 | 0.00 | 0.00 | 67 | 1063.5 |
| 20260905131107 | 67 | 337 | 7.0 | 0.0 | 0.00 | 0.00 | 0.00 | 66 | 1063.6 |
| 20260905131003 | 67 | 315 | 6.1 | 0.0 | 0.00 | 0.00 | 0.00 | 66 | 1063.6 |
| 20260905130857 | 67 | 292 | 8.7 | 0.0 | 0.00 | 0.00 | 0.00 | 66 | 1063.5 |
| 20260905130752 | 68 | 315 | 7.0 | 0.0 | 0.00 | 0.00 | 0.00 | 66 | 1063.5 |
| 20260905130638 | 68 | 315 | 7.8 | 0.0 | 0.00 | 0.00 | 0.00 | 66 | 1063.5 |
| 20260905130532 | 68 | 292 | 2.6 | 0.0 | 0.00 | 0.00 | 0.00 | 66 | 1063.3 |
| 20260905130421 | 68 | 315 | 12.2 | 0.0 | 0.00 | 0.00 | 0.00 | 65 | 1063.4 |
| 20260905130259 | 68 | 315 | 8.7 | 0.0 | 0.00 | 0.00 | 0.00 | 65 | 1063.3 |
| 20260905130145 | 68 | 337 | 0.0 | 0.0 | 0.00 | 0.00 | 0.00 | 65 | 1063.4 |
| 20260905130032 | 68 | 270 | 5.2 | 0.0 | 0.00 | 0.00 | 0.00 | 64 | 1063.3 |
| 20260905125921 | 68 | 292 | 0.0 | 0.0 | 0.00 | 0.00 | 0.00 | 64 | 1063.2 |
| 20260905125815 | 68 | 337 | 7.8 | 0.0 | 0.00 | 0.00 | 0.00 | 64 | 1063.3 |
| 20260905125710 | 68 | 315 | 0.0 | 0.0 | 0.00 | 0.00 | 0.00 | 64 | 1063.3 |
| 20260905125604 | 68 | 247 | 8.7 | 0.0 | 0.00 | 0.00 | 0.00 | 64 | 1063.2 |
| 20260905125450 | 68 | 337 | 5.2 | 0.0 | 0.00 | 0.00 | 0.00 | 64 | 1063.1 |
| 20260905125321 | 67 | 270 | 5.2 | 0.0 | 0.00 | 0.00 | 0.00 | 65 | 1063.1 |
| 20260905125208 | 67 | 270 | 3.5 | 0.0 | 0.00 | 0.00 | 0.00 | 65 | 1063.1 |
| 20260905125103 | 67 | 225 | 9.6 | 0.0 | 0.00 | 0.00 | 0.00 | 65 | 1063.1 |
| 20260905124957 | 67 | 247 | 5.2 | 0.0 | 0.00 | 0.00 | 0.00 | 65 | 1063.1 |
| 20260905124845 | 67 | 270 | 7.8 | 0.0 | 0.00 | 0.00 | 0.00 | 65 | 1063.1 |
| 20260905124725 | 67 | 292 | 6.1 | 0.0 | 0.00 | 0.00 | 0.00 | 67 | 1063.1 |
| 20260905124618 | 67 | 315 | 7.8 | 0.0 | 0.00 | 0.00 | 0.00 | 68 | 1063.0 |
| 20260905124505 | 67 | 337 | 10.4 | 0.0 | 0.00 | 0.00 | 0.00 | 69 | 1063.0 |
| 20260905124401 | 66 | 315 | 7.8 | 0.0 | 0.00 | 0.00 | 0.00 | 70 | 1063.0 |
| 20260905124254 | 66 | 292 | 3.5 | 0.0 | 0.00 | 0.00 | 0.00 | 70 | 1063.1 |
| 20260905124141 | 66 | 270 | 11.3 | 0.0 | 0.00 | 0.00 | 0.00 | 71 | 1063.0 |
| 20260905124020 | 65 | 337 | 7.8 | 0.0 | 0.00 | 0.00 | 0.00 | 72 | 1062.9 |
| 20260905123906 | 65 | 292 | 7.0 | 0.0 | 0.00 | 0.00 | 0.00 | 73 | 1063.0 |
| 20260905123754 | 65 | 0 | 8.7 | 0.0 | 0.00 | 0.00 | 0.00 | 73 | 1063.0 |
| 20260905123648 | 65 | 315 | 7.0 | 0.0 | 0.00 | 0.00 | 0.00 | 73 | 1063.0 |
| 20260905123526 | 65 | 292 | 6.1 | 0.0 | 0.00 | 0.00 | 0.00 | 73 | 1062.9 |
| 20260905123414 | 65 | 292 | 4.3 | 0.0 | 0.00 | 0.00 | 0.00 | 72 | 1063.0 |
| 20260905123308 | 65 | 337 | 7.0 | 0.0 | 0.00 | 0.00 | 0.00 | 72 | 1062.9 |
| 20260905123153 | 65 | 292 | 5.2 | 0.0 | 0.00 | 0.00 | 0.00 | 71 | 1062.9 |
| 20260905123032 | 66 | 337 | 8.7 | 0.0 | 0.00 | 0.00 | 0.00 | 69 | 1063.0 |
| 20260905122918 | 67 | 315 | 2.6 | 0.0 | 0.00 | 0.00 | 0.00 | 68 | 1062.9 |
| 20260905122805 | 67 | 292 | 9.6 | 0.0 | 0.00 | 0.00 | 0.00 | 67 | 1062.9 |
| 20260905122646 | 68 | 270 | 13.0 | 0.0 | 0.00 | 0.00 | 0.00 | 66 | 1062.9 |
| 20260905122540 | 69 | 315 | 11.3 | 0.0 | 0.00 | 0.00 | 0.00 | 64 | 1062.9 |
| 20260905122436 | 69 | 292 | 16.5 | 0.0 | 0.00 | 0.00 | 0.00 | 62 | 1062.8 |
| 20260905122325 | 69 | 292 | 12.2 | 0.0 | 0.00 | 0.00 | 0.00 | 60 | 1062.8 |
| 20260905122151 | 69 | 292 | 4.3 | 0.0 | 0.00 | 0.00 | 0.00 | 59 | 1062.7 |
| 20260905122038 | 69 | 292 | 5.2 | 0.0 | 0.00 | 0.00 | 0.00 | 60 | 1062.6 |
| 20260905121925 | 69 | 315 | 0.9 | 0.0 | 0.00 | 0.00 | 0.00 | 61 | 1062.6 |
| 20260905121811 | 69 | 45 | 12.2 | 0.0 | 0.00 | 0.00 | 0.00 | 62 | 1062.6 |
| 20260905121650 | 68 | 337 | 7.8 | 0.0 | 0.00 | 0.00 | 0.00 | 62 | 1062.6 |
| 20260905121529 | 68 | 247 | 8.7 | 0.0 | 0.00 | 0.00 | 0.00 | 64 | 1062.6 |
| 20260905121417 | 68 | 315 | 12.2 | 0.0 | 0.00 | 0.00 | 0.00 | 63 | 1062.5 |
| 20260905121303 | 67 | 315 | 18.2 | 0.0 | 0.00 | 0.00 | 0.00 | 66 | 1062.6 |
| 20260905121134 | 67 | 270 | 5.2 | 0.0 | 0.00 | 0.00 | 0.00 | 67 | 1062.5 |
| 20260905121021 | 67 | 270 | 9.6 | 0.0 | 0.00 | 0.00 | 0.00 | 68 | 1062.5 |
| 20260905120915 | 67 | 270 | 4.3 | 0.0 | 0.00 | 0.00 | 0.00 | 68 | 1062.5 |
| 20260905120754 | 66 | 315 | 10.4 | 0.0 | 0.00 | 0.00 | 0.00 | 69 | 1062.5 |
| 20260905120641 | 66 | 292 | 8.7 | 0.0 | 0.00 | 0.00 | 0.00 | 69 | 1062.5 |
| 20260905120527 | 66 | 315 | 5.2 | 0.0 | 0.00 | 0.00 | 0.00 | 69 | 1062.5 |
| 20260905120408 | 66 | 292 | 13.0 | 0.0 | 0.00 | 0.00 | 0.00 | 68 | 1062.4 |
| 20260905120301 | 65 | 0 | 7.8 | 0.0 | 0.00 | 0.00 | 0.00 | 69 | 1062.4 |
| 20260905120148 | 65 | 337 | 0.0 | 0.0 | 0.00 | 0.00 | 0.00 | 71 | 1062.4 |
| 20260905120036 | 65 | 337 | 7.0 | 0.0 | 0.00 | 0.00 | 0.00 | 72 | 1062.3 |
| 20260905115931 | 65 | 270 | 5.2 | 0.0 | 0.00 | 0.02 | 0.00 | 73 | 1062.4 |
| 20260905115825 | 65 | 270 | 7.8 | 0.0 | 0.00 | 0.02 | 0.00 | 73 | 1062.4 |
| 20260905115712 | 65 | 315 | 9.6 | 0.0 | 0.00 | 0.02 | 0.00 | 72 | 1062.3 |
| 20260905115606 | 65 | 247 | 4.3 | 0.0 | 0.00 | 0.02 | 0.00 | 72 | 1062.3 |
| 20260905115443 | 65 | 315 | 6.1 | 0.0 | 0.00 | 0.02 | 0.00 | 71 | 1062.3 |
| 20260905115331 | 65 | 315 | 7.8 | 0.0 | 0.00 | 0.02 | 0.00 | 71 | 1062.2 |
| 20260905115217 | 65 | 292 | 16.5 | 0.0 | 0.00 | 0.02 | 0.00 | 70 | 1062.3 |
| 20260905115105 | 65 | 270 | 15.6 | 0.0 | 0.00 | 0.02 | 0.00 | 72 | 1062.3 |
| 20260905114951 | 65 | 270 | 9.6 | 0.0 | 0.00 | 0.02 | 0.00 | 72 | 1062.3 |
| 20260905114836 | 66 | 292 | 13.9 | 0.0 | 0.00 | 0.02 | 0.00 | 72 | 1062.3 |
| 20260905114715 | 66 | 337 | 0.0 | 0.0 | 0.00 | 0.02 | 0.00 | 72 | 1062.3 |
| 20260905114602 | 66 | 292 | 13.9 | 0.0 | 0.00 | 0.02 | 0.00 | 73 | 1062.2 |
| 20260905114449 | 66 | 315 | 1.7 | 0.0 | 0.00 | 0.02 | 0.00 | 74 | 1062.2 |
| 20260905114344 | 66 | 315 | 7.0 | 0.0 | 0.00 | 0.02 | 0.00 | 74 | 1062.1 |
| 20260905114231 | 66 | 247 | 11.3 | 0.0 | 0.00 | 0.02 | 0.00 | 76 | 1062.2 |
| 20260905114117 | 65 | 225 | 13.9 | 0.0 | 0.00 | 0.02 | 0.00 | 79 | 1062.1 |
| 20260905114006 | 65 | 315 | 3.5 | 0.0 | 0.00 | 0.02 | 0.00 | 79 | 1062.1 |
| 20260905113858 | 64 | 337 | 3.5 | 0.0 | 0.00 | 0.02 | 0.00 | 80 | 1062.1 |
| 20260905113745 | 64 | 315 | 5.2 | 0.0 | 0.00 | 0.02 | 0.00 | 81 | 1062.1 |
| 20260905113631 | 63 | 337 | 4.3 | 0.0 | 0.00 | 0.02 | 0.00 | 81 | 1062.1 |
| 20260905113511 | 63 | 337 | 7.0 | 0.0 | 0.00 | 0.02 | 0.00 | 82 | 1062.2 |
| 20260905113405 | 62 | 315 | 4.3 | 0.0 | 0.00 | 0.02 | 0.00 | 83 | 1062.2 |
| 20260905113253 | 62 | 337 | 6.1 | 0.0 | 0.00 | 0.02 | 0.00 | 84 | 1062.2 |
| 20260905113147 | 62 | 315 | 4.3 | 0.0 | 0.00 | 0.02 | 0.00 | 84 | 1062.1 |
| 20260905113042 | 62 | 315 | 5.2 | 0.0 | 0.00 | 0.02 | 0.00 | 83 | 1062.1 |
| 20260905112937 | 61 | 315 | 5.2 | 0.0 | 0.00 | 0.02 | 0.00 | 83 | 1062.1 |
| 20260905112831 | 61 | 292 | 7.0 | 0.0 | 0.00 | 0.02 | 0.00 | 83 | 1062.0 |
| 20260905112726 | 61 | 315 | 9.6 | 0.0 | 0.00 | 0.02 | 0.00 | 83 | 1062.0 |
| 20260905112613 | 61 | 337 | 3.5 | 0.0 | 0.00 | 0.02 | 0.00 | 83 | 1062.0 |
| 20260905112500 | 61 | 0 | 6.1 | 0.0 | 0.00 | 0.02 | 0.00 | 82 | 1062.0 |
| 20260905112338 | 61 | 315 | 4.3 | 0.0 | 0.00 | 0.02 | 0.00 | 82 | 1062.1 |
| 20260905112234 | 61 | 315 | 9.6 | 0.0 | 0.00 | 0.02 | 0.00 | 82 | 1062.1 |
| 20260905112129 | 62 | 292 | 24.3 | 0.0 | 0.00 | 0.02 | 0.00 | 82 | 1062.1 |
| 20260905112015 | 62 | 315 | 8.7 | 0.0 | 0.00 | 0.02 | 0.00 | 81 | 1062.1 |
| 20260905111854 | 62 | 315 | 5.2 | 0.0 | 0.00 | 0.02 | 0.00 | 80 | 1062.0 |
| 20260905111741 | 62 | 0 | 7.0 | 0.0 | 0.00 | 0.02 | 0.00 | 79 | 1062.0 |
| 20260905111636 | 62 | 337 | 4.3 | 0.0 | 0.00 | 0.02 | 0.00 | 79 | 1062.0 |
| 20260905111516 | 63 | 0 | 6.1 | 0.0 | 0.00 | 0.02 | 0.00 | 78 | 1062.0 |
| 20260905111410 | 63 | 315 | 7.0 | 0.0 | 0.00 | 0.02 | 0.00 | 78 | 1062.0 |
| 20260905111257 | 63 | 292 | 6.1 | 0.0 | 0.00 | 0.02 | 0.00 | 76 | 1062.0 |
| 20260905111152 | 64 | 292 | 6.1 | 0.0 | 0.00 | 0.02 | 0.00 | 75 | 1061.9 |
| 20260905111023 | 64 | 292 | 9.6 | 0.0 | 0.00 | 0.02 | 0.00 | 74 | 1061.9 |
| 20260905110908 | 65 | 292 | 6.1 | 0.0 | 0.00 | 0.02 | 0.00 | 73 | 1061.8 |
| 20260905110740 | 65 | 270 | 10.4 | 0.0 | 0.00 | 0.02 | 0.00 | 71 | 1061.8 |
| 20260905110635 | 65 | 315 | 7.8 | 0.0 | 0.00 | 0.02 | 0.00 | 69 | 1061.7 |
| 20260905110520 | 66 | 270 | 7.8 | 0.0 | 0.00 | 0.02 | 0.00 | 68 | 1061.6 |
| 20260905110359 | 66 | 292 | 7.8 | 0.0 | 0.00 | 0.02 | 0.00 | 69 | 1061.6 |
| 20260905110240 | 66 | 292 | 7.8 | 0.0 | 0.00 | 0.02 | 0.00 | 70 | 1061.5 |
| 20260905110133 | 66 | 315 | 7.8 | 0.0 | 0.00 | 0.02 | 0.00 | 69 | 1061.5 |
| 20260905110020 | 66 | 315 | 9.6 | 0.0 | 0.00 | 0.02 | 0.00 | 70 | 1061.6 |
| 20260905105850 | 66 | 292 | 11.3 | 0.0 | 0.00 | 0.02 | 0.00 | 70 | 1061.4 |
| 20260905105736 | 67 | 292 | 10.4 | 0.0 | 0.00 | 0.02 | 0.00 | 70 | 1061.4 |
| 20260905105618 | 67 | 292 | 6.1 | 0.0 | 0.00 | 0.02 | 0.00 | 69 | 1061.5 |
| 20260905105511 | 69 | 292 | 9.6 | 0.0 | 0.00 | 0.02 | 0.00 | 68 | 1061.5 |
| 20260905105350 | 69 | 225 | 9.6 | 0.0 | 0.00 | 0.02 | 0.00 | 66 | 1061.5 |
| 20260905105244 | 70 | 315 | 11.3 | 0.0 | 0.00 | 0.02 | 0.00 | 63 | 1061.4 |
| 20260905105115 | 71 | 292 | 7.0 | 0.0 | 0.00 | 0.02 | 0.00 | 60 | 1061.3 |
| 20260905105003 | 71 | 0 | 14.8 | 0.0 | 0.00 | 0.02 | 0.00 | 60 | 1061.1 |
| 20260905104851 | 71 | 0 | 3.5 | 0.0 | 0.00 | 0.02 | 0.00 | 60 | 1061.3 |
| 20260905104746 | 71 | 112 | 8.7 | 0.0 | 0.00 | 0.02 | 0.00 | 60 | 1061.2 |
| 20260905104634 | 71 | 315 | 10.4 | 0.0 | 0.00 | 0.02 | 0.00 | 60 | 1061.2 |
| 20260905104526 | 72 | 247 | 10.4 | 0.0 | 0.00 | 0.02 | 0.00 | 60 | 1061.1 |
| 20260905104405 | 72 | 270 | 6.1 | 0.0 | 0.00 | 0.02 | 0.00 | 59 | 1061.1 |
| 20260905104254 | 72 | 0 | 0.0 | 0.0 | 0.00 | 0.02 | 0.00 | 58 | 1061.0 |
| 20260905104149 | 71 | 292 | 14.8 | 0.0 | 0.00 | 0.02 | 0.00 | 58 | 1061.1 |
| 20260905104045 | 71 | 315 | 10.4 | 0.0 | 0.00 | 0.02 | 0.00 | 58 | 1061.1 |
| 20260905103936 | 71 | 315 | 5.2 | 0.0 | 0.00 | 0.02 | 0.00 | 58 | 1061.1 |
| 20260905103815 | 71 | 315 | 9.6 | 0.0 | 0.00 | 0.02 | 0.00 | 58 | 1061.0 |
| 20260905103654 | 71 | 337 | 6.1 | 0.0 | 0.00 | 0.02 | 0.00 | 58 | 1061.0 |
| 20260905103540 | 71 | 337 | 10.4 | 0.0 | 0.00 | 0.02 | 0.00 | 58 | 1061.0 |
| 20260905103419 | 71 | 292 | 7.0 | 0.0 | 0.00 | 0.02 | 0.00 | 58 | 1061.0 |
| 20260905103257 | 71 | 315 | 11.3 | 0.0 | 0.00 | 0.02 | 0.00 | 60 | 1061.0 |
| 20260905103135 | 70 | 292 | 5.2 | 0.0 | 0.00 | 0.02 | 0.00 | 60 | 1061.0 |
| 20260905102959 | 70 | 292 | 0.0 | 0.0 | 0.00 | 0.02 | 0.00 | 59 | 1061.0 |
| 20260905102853 | 70 | 315 | 6.1 | 0.0 | 0.00 | 0.02 | 0.00 | 59 | 1061.0 |
| 20260905102739 | 70 | 337 | 6.1 | 0.0 | 0.00 | 0.02 | 0.00 | 61 | 1060.8 |
| 20260905102618 | 71 | 292 | 9.6 | 0.0 | 0.00 | 0.02 | 0.00 | 62 | 1060.8 |
| 20260905102444 | 71 | 292 | 9.6 | 0.0 | 0.00 | 0.02 | 0.00 | 61 | 1060.8 |
| 20260905102338 | 72 | 270 | 4.3 | 0.0 | 0.00 | 0.02 | 0.00 | 61 | 1060.8 |
| 20260905102233 | 72 | 337 | 10.4 | 0.0 | 0.00 | 0.02 | 0.00 | 62 | 1060.8 |
| 20260905102119 | 72 | 337 | 5.2 | 0.0 | 0.00 | 0.02 | 0.00 | 61 | 1060.8 |
| 20260905102007 | 72 | 247 | 7.0 | 0.0 | 0.00 | 0.02 | 0.00 | 61 | 1060.8 |
| 20260905101852 | 72 | 270 | 0.0 | 0.0 | 0.00 | 0.02 | 0.00 | 60 | 1060.8 |
| 20260905101731 | 72 | 315 | 10.4 | 0.0 | 0.00 | 0.02 | 0.00 | 60 | 1060.8 |
| 20260905101602 | 72 | 337 | 7.0 | 0.0 | 0.00 | 0.02 | 0.00 | 60 | 1060.7 |
| 20260905101449 | 72 | 337 | 2.6 | 0.0 | 0.00 | 0.02 | 0.00 | 59 | 1060.8 |
| 20260905101337 | 72 | 0 | 6.1 | 0.0 | 0.00 | 0.02 | 0.00 | 58 | 1060.7 |
| 20260905101225 | 72 | 292 | 5.2 | 0.0 | 0.00 | 0.02 | 0.00 | 57 | 1060.8 |
| 20260905101119 | 73 | 337 | 3.5 | 0.0 | 0.00 | 0.02 | 0.00 | 57 | 1060.8 |
| 20260905101014 | 73 | 247 | 12.2 | 0.0 | 0.00 | 0.02 | 0.00 | 58 | 1060.7 |
| 20260905100910 | 73 | 247 | 7.0 | 0.0 | 0.00 | 0.02 | 0.00 | 58 | 1060.7 |
| 20260905100742 | 73 | 292 | 0.0 | 0.0 | 0.00 | 0.02 | 0.00 | 58 | 1060.7 |
| 20260905100627 | 73 | 315 | 9.6 | 0.0 | 0.00 | 0.02 | 0.00 | 58 | 1060.7 |
| 20260905100505 | 73 | 315 | 5.2 | 0.0 | 0.00 | 0.02 | 0.00 | 58 | 1060.7 |
| 20260905100326 | 73 | 292 | 20.9 | 0.0 | 0.00 | 0.02 | 0.00 | 58 | 1060.7 |
| 20260905100159 | 72 | 337 | 0.0 | 0.0 | 0.00 | 0.02 | 0.00 | 59 | 1060.7 |
| 20260905100044 | 72 | 247 | 2.6 | 0.0 | 0.00 | 0.02 | 0.00 | 59 | 1060.7 |
| 20260905095925 | 72 | 270 | 4.3 | 0.0 | 0.00 | 0.02 | 0.00 | 59 | 1060.7 |
| 20260905095809 | 72 | 292 | 6.1 | 0.0 | 0.00 | 0.02 | 0.00 | 59 | 1060.6 |
| 20260905095659 | 71 | 337 | 7.8 | 0.0 | 0.00 | 0.02 | 0.00 | 60 | 1060.6 |
| 20260905095554 | 71 | 292 | 5.2 | 0.0 | 0.00 | 0.02 | 0.00 | 60 | 1060.6 |
| 20260905095435 | 71 | 292 | 8.7 | 0.0 | 0.00 | 0.02 | 0.00 | 60 | 1060.6 |
| 20260905095319 | 71 | 315 | 12.2 | 0.0 | 0.00 | 0.02 | 0.00 | 61 | 1060.6 |
| 20260905095207 | 70 | 315 | 13.0 | 0.0 | 0.00 | 0.02 | 0.00 | 62 | 1060.5 |
| 20260905095053 | 70 | 247 | 12.2 | 0.0 | 0.00 | 0.02 | 0.00 | 64 | 1060.5 |
| 20260905094932 | 69 | 270 | 18.2 | 0.0 | 0.00 | 0.02 | 0.00 | 64 | 1060.5 |
| 20260905094819 | 69 | 292 | 6.1 | 0.0 | 0.00 | 0.02 | 0.00 | 64 | 1060.5 |
| 20260905094657 | 68 | 315 | 7.8 | 0.0 | 0.00 | 0.02 | 0.00 | 63 | 1060.5 |
| 20260905094530 | 68 | 337 | 7.0 | 0.0 | 0.00 | 0.02 | 0.00 | 63 | 1060.5 |
| 20260905094423 | 68 | 270 | 13.0 | 0.0 | 0.00 | 0.02 | 0.00 | 63 | 1060.5 |
| 20260905094301 | 68 | 22 | 14.8 | 0.0 | 0.00 | 0.02 | 0.00 | 64 | 1060.4 |
| 20260905094149 | 68 | 315 | 11.3 | 0.0 | 0.00 | 0.02 | 0.00 | 65 | 1060.4 |
| 20260905094035 | 68 | 292 | 6.1 | 0.0 | 0.00 | 0.02 | 0.00 | 65 | 1060.3 |
| 20260905093913 | 67 | 292 | 14.8 | 0.0 | 0.00 | 0.02 | 0.00 | 68 | 1060.3 |
| 20260905093800 | 67 | 315 | 6.1 | 0.0 | 0.00 | 0.02 | 0.00 | 68 | 1060.3 |
| 20260905093656 | 67 | 337 | 7.0 | 0.0 | 0.00 | 0.02 | 0.00 | 68 | 1060.3 |
| 20260905093549 | 66 | 270 | 9.6 | 0.0 | 0.00 | 0.02 | 0.00 | 69 | 1060.4 |
| 20260905093419 | 66 | 292 | 10.4 | 0.0 | 0.00 | 0.02 | 0.00 | 70 | 1060.2 |
| 20260905093301 | 66 | 292 | 14.8 | 0.0 | 0.00 | 0.02 | 0.00 | 71 | 1060.2 |
| 20260905093156 | 66 | 315 | 3.5 | 0.0 | 0.00 | 0.02 | 0.00 | 70 | 1060.1 |
| 20260905093042 | 67 | 315 | 1.7 | 0.0 | 0.00 | 0.02 | 0.00 | 68 | 1060.1 |
| 20260905092920 | 67 | 292 | 5.2 | 0.0 | 0.00 | 0.02 | 0.00 | 68 | 1060.1 |
| 20260905092751 | 69 | 315 | 12.2 | 0.0 | 0.00 | 0.02 | 0.00 | 67 | 1060.1 |
| 20260905092629 | 69 | 337 | 2.6 | 0.0 | 0.00 | 0.02 | 0.00 | 66 | 1060.1 |
| 20260905092515 | 71 | 337 | 7.8 | 0.0 | 0.00 | 0.02 | 0.00 | 62 | 1060.1 |
| 20260905092348 | 72 | 315 | 1.7 | 0.0 | 0.00 | 0.02 | 0.00 | 61 | 1060.1 |
| 20260905092226 | 73 | 247 | 13.9 | 0.0 | 0.00 | 0.02 | 0.00 | 59 | 1060.1 |
| 20260905092121 | 74 | 337 | 4.3 | 0.0 | 0.00 | 0.02 | 0.00 | 57 | 1060.0 |
| 20260905092001 | 75 | 315 | 5.2 | 0.0 | 0.00 | 0.02 | 0.00 | 55 | 1059.9 |
| 20260905091855 | 74 | 247 | 10.4 | 0.0 | 0.00 | 0.02 | 0.00 | 54 | 1059.8 |
| 20260905091733 | 74 | 247 | 20.0 | 0.0 | 0.00 | 0.02 | 0.00 | 54 | 1059.9 |
| 20260905091621 | 74 | 292 | 12.2 | 0.0 | 0.00 | 0.02 | 0.00 | 54 | 1059.9 |
| 20260905091515 | 74 | 270 | 11.3 | 0.0 | 0.00 | 0.02 | 0.00 | 55 | 1059.7 |
| 20260905091354 | 74 | 292 | 7.8 | 0.0 | 0.00 | 0.02 | 0.00 | 55 | 1059.8 |
| 20260905091242 | 74 | 292 | 7.0 | 0.0 | 0.00 | 0.02 | 0.00 | 55 | 1059.8 |
| 20260905091138 | 74 | 292 | 7.0 | 0.0 | 0.00 | 0.02 | 0.00 | 54 | 1059.7 |
| 20260905091030 | 74 | 270 | 11.3 | 0.0 | 0.00 | 0.02 | 0.00 | 55 | 1059.7 |
| 20260905090903 | 74 | 202 | 14.8 | 0.0 | 0.00 | 0.02 | 0.00 | 56 | 1059.7 |
| 20260905090756 | 74 | 315 | 7.8 | 0.0 | 0.00 | 0.02 | 0.00 | 56 | 1059.7 |
| 20260905090636 | 74 | 292 | 4.3 | 0.0 | 0.00 | 0.02 | 0.00 | 56 | 1059.7 |
| 20260905090530 | 74 | 292 | 7.0 | 0.0 | 0.00 | 0.02 | 0.00 | 56 | 1059.7 |
| 20260905090410 | 74 | 247 | 7.0 | 0.0 | 0.00 | 0.02 | 0.00 | 58 | 1059.7 |
| 20260905090304 | 73 | 337 | 6.1 | 0.0 | 0.00 | 0.02 | 0.00 | 58 | 1059.6 |
| 20260905090143 | 73 | 270 | 7.8 | 0.0 | 0.00 | 0.02 | 0.00 | 59 | 1059.6 |
| 20260905090039 | 73 | 202 | 4.3 | 0.0 | 0.00 | 0.02 | 0.00 | 60 | 1059.6 |
| 20260905085934 | 72 | 270 | 5.2 | 0.0 | 0.00 | 0.08 | 0.00 | 61 | 1059.6 |
| 20260905085820 | 72 | 292 | 7.0 | 0.0 | 0.00 | 0.08 | 0.00 | 62 | 1059.6 |
| 20260905085651 | 71 | 315 | 2.6 | 0.0 | 0.00 | 0.08 | 0.00 | 61 | 1059.6 |
| 20260905085522 | 72 | 292 | 10.4 | 0.0 | 0.00 | 0.08 | 0.00 | 61 | 1059.6 |
| 20260905085408 | 72 | 270 | 12.2 | 0.0 | 0.00 | 0.08 | 0.00 | 62 | 1059.5 |
| 20260905085248 | 71 | 315 | 11.3 | 0.0 | 0.00 | 0.08 | 0.00 | 61 | 1059.5 |
| 20260905085119 | 71 | 270 | 8.7 | 0.0 | 0.00 | 0.08 | 0.00 | 62 | 1059.6 |
| 20260905085006 | 71 | 315 | 7.8 | 0.0 | 0.00 | 0.08 | 0.00 | 62 | 1059.5 |
| 20260905084859 | 70 | 337 | 8.7 | 0.0 | 0.00 | 0.08 | 0.00 | 63 | 1059.5 |
| 20260905084748 | 70 | 292 | 8.7 | 0.0 | 0.00 | 0.08 | 0.00 | 62 | 1059.5 |
| 20260905084635 | 70 | 292 | 6.1 | 0.0 | 0.00 | 0.08 | 0.00 | 61 | 1059.5 |
| 20260905084521 | 71 | 315 | 14.8 | 0.0 | 0.00 | 0.08 | 0.00 | 61 | 1059.4 |
| 20260905084408 | 71 | 292 | 1.7 | 0.0 | 0.00 | 0.08 | 0.00 | 62 | 1059.4 |
| 20260905084247 | 72 | 337 | 5.2 | 0.0 | 0.00 | 0.08 | 0.00 | 62 | 1059.3 |
| 20260905084142 | 72 | 315 | 3.5 | 0.0 | 0.00 | 0.08 | 0.00 | 62 | 1059.4 |
| 20260905084023 | 71 | 292 | 12.2 | 0.0 | 0.00 | 0.08 | 0.00 | 63 | 1059.4 |
| 20260905083907 | 71 | 270 | 9.6 | 0.0 | 0.00 | 0.08 | 0.00 | 65 | 1059.3 |
| 20260905083755 | 70 | 270 | 9.6 | 0.0 | 0.00 | 0.08 | 0.00 | 66 | 1059.3 |
| 20260905083648 | 69 | 292 | 15.6 | 0.0 | 0.00 | 0.08 | 0.00 | 68 | 1059.4 |
| 20260905083520 | 69 | 292 | 8.7 | 0.0 | 0.00 | 0.08 | 0.00 | 70 | 1059.3 |
| 20260905083417 | 68 | 0 | 1.7 | 0.0 | 0.00 | 0.08 | 0.00 | 71 | 1059.4 |
| 20260905083309 | 67 | 292 | 5.2 | 0.0 | 0.00 | 0.08 | 0.00 | 72 | 1059.3 |
| 20260905083155 | 66 | 292 | 3.5 | 0.0 | 0.00 | 0.08 | 0.00 | 72 | 1059.3 |
| 20260905083035 | 66 | 292 | 4.3 | 0.0 | 0.00 | 0.08 | 0.00 | 73 | 1059.3 |
| 20260905082928 | 65 | 337 | 0.0 | 0.0 | 0.00 | 0.08 | 0.00 | 72 | 1059.3 |
| 20260905082805 | 65 | 315 | 7.8 | 0.0 | 0.00 | 0.08 | 0.00 | 72 | 1059.3 |
| 20260905082644 | 65 | 292 | 9.6 | 0.0 | 0.00 | 0.08 | 0.00 | 72 | 1059.3 |
| 20260905082522 | 65 | 337 | 0.0 | 0.0 | 0.00 | 0.08 | 0.00 | 73 | 1059.2 |
| 20260905082355 | 65 | 225 | 7.0 | 0.0 | 0.00 | 0.08 | 0.00 | 73 | 1059.3 |
| 20260905082248 | 65 | 337 | 8.7 | 0.0 | 0.00 | 0.08 | 0.00 | 74 | 1059.3 |
| 20260905082136 | 64 | 135 | 6.1 | 0.0 | 0.00 | 0.08 | 0.00 | 76 | 1059.3 |
| 20260905082030 | 64 | 315 | 4.3 | 0.0 | 0.00 | 0.08 | 0.00 | 76 | 1059.3 |
| 20260905081917 | 64 | 337 | 7.0 | 0.0 | 0.00 | 0.08 | 0.00 | 76 | 1059.3 |
| 20260905081756 | 64 | 315 | 3.5 | 0.0 | 0.00 | 0.08 | 0.00 | 76 | 1059.3 |
| 20260905081642 | 64 | 315 | 7.0 | 0.0 | 0.00 | 0.08 | 0.00 | 75 | 1059.3 |
| 20260905081532 | 64 | 315 | 4.3 | 0.0 | 0.00 | 0.08 | 0.00 | 74 | 1059.4 |
| 20260905081424 | 65 | 292 | 5.2 | 0.0 | 0.00 | 0.08 | 0.00 | 73 | 1059.3 |
| 20260905081306 | 65 | 315 | 13.9 | 0.0 | 0.00 | 0.08 | 0.00 | 72 | 1059.4 |
| 20260905081158 | 66 | 315 | 7.0 | 0.0 | 0.00 | 0.08 | 0.00 | 70 | 1059.3 |
| 20260905081045 | 66 | 337 | 0.0 | 0.0 | 0.00 | 0.08 | 0.00 | 69 | 1059.3 |
| 20260905080939 | 66 | 337 | 12.2 | 0.0 | 0.00 | 0.08 | 0.00 | 68 | 1059.2 |
| 20260905080820 | 67 | 292 | 13.0 | 0.0 | 0.00 | 0.08 | 0.00 | 69 | 1059.1 |
| 20260905080715 | 67 | 247 | 4.3 | 0.0 | 0.00 | 0.08 | 0.00 | 68 | 1059.0 |
| 20260905080609 | 67 | 292 | 7.0 | 0.0 | 0.00 | 0.08 | 0.00 | 67 | 1058.9 |
| 20260905080455 | 68 | 315 | 2.6 | 0.0 | 0.00 | 0.08 | 0.00 | 65 | 1058.8 |
| 20260905080342 | 68 | 292 | 9.6 | 0.0 | 0.00 | 0.08 | 0.00 | 64 | 1058.9 |
| 20260905080228 | 68 | 315 | 12.2 | 0.0 | 0.00 | 0.08 | 0.00 | 64 | 1058.8 |
| 20260905080059 | 69 | 0 | 7.0 | 0.0 | 0.00 | 0.08 | 0.00 | 64 | 1058.8 |
| 20260905075945 | 69 | 292 | 6.1 | 0.0 | 0.00 | 0.18 | 0.00 | 64 | 1058.8 |
| 20260905075823 | 69 | 292 | 3.5 | 0.0 | 0.00 | 0.18 | 0.00 | 63 | 1058.8 |
| 20260905075710 | 70 | 337 | 6.1 | 0.0 | 0.00 | 0.18 | 0.00 | 62 | 1058.8 |
| 20260905075557 | 71 | 315 | 7.0 | 0.0 | 0.00 | 0.18 | 0.00 | 60 | 1058.8 |
| 20260905075438 | 71 | 292 | 0.0 | 0.0 | 0.00 | 0.18 | 0.00 | 60 | 1058.8 |
| 20260905075332 | 71 | 292 | 11.3 | 0.0 | 0.00 | 0.18 | 0.00 | 59 | 1058.8 |
| 20260905075219 | 71 | 292 | 10.4 | 0.0 | 0.00 | 0.18 | 0.00 | 60 | 1058.8 |
| 20260905075100 | 71 | 270 | 13.9 | 0.0 | 0.00 | 0.18 | 0.00 | 61 | 1058.7 |
| 20260905074938 | 70 | 315 | 7.8 | 0.0 | 0.00 | 0.18 | 0.00 | 61 | 1058.7 |
| 20260905074816 | 69 | 270 | 5.2 | 0.0 | 0.00 | 0.18 | 0.00 | 64 | 1058.7 |
| 20260905074657 | 69 | 337 | 3.5 | 0.0 | 0.00 | 0.18 | 0.00 | 65 | 1058.7 |
| 20260905074550 | 68 | 315 | 10.4 | 0.0 | 0.00 | 0.18 | 0.00 | 66 | 1058.6 |
| 20260905074445 | 68 | 292 | 7.8 | 0.0 | 0.00 | 0.18 | 0.00 | 65 | 1058.6 |
| 20260905074338 | 67 | 337 | 5.2 | 0.0 | 0.00 | 0.18 | 0.00 | 65 | 1058.6 |
| 20260905074209 | 68 | 337 | 3.5 | 0.0 | 0.00 | 0.18 | 0.00 | 65 | 1058.7 |
| 20260905074055 | 68 | 0 | 1.7 | 0.0 | 0.00 | 0.18 | 0.00 | 65 | 1058.6 |
| 20260905073951 | 69 | 315 | 7.0 | 0.0 | 0.00 | 0.18 | 0.00 | 66 | 1058.7 |
| 20260905073846 | 69 | 270 | 8.7 | 0.0 | 0.00 | 0.18 | 0.00 | 66 | 1058.7 |
| 20260905073733 | 69 | 292 | 4.3 | 0.0 | 0.00 | 0.18 | 0.00 | 65 | 1058.7 |
| 20260905073621 | 70 | 315 | 3.5 | 0.0 | 0.00 | 0.18 | 0.00 | 64 | 1058.7 |
| 20260905073508 | 70 | 315 | 7.0 | 0.0 | 0.00 | 0.18 | 0.00 | 64 | 1058.6 |
| 20260905073400 | 70 | 337 | 10.4 | 0.0 | 0.00 | 0.18 | 0.00 | 64 | 1058.6 |
| 20260905073247 | 70 | 337 | 8.7 | 0.0 | 0.00 | 0.18 | 0.00 | 64 | 1058.5 |
| 20260905073125 | 70 | 270 | 13.0 | 0.0 | 0.00 | 0.18 | 0.00 | 65 | 1058.5 |
| 20260905073012 | 69 | 292 | 6.1 | 0.0 | 0.00 | 0.18 | 0.00 | 65 | 1058.5 |
| 20260905072858 | 69 | 337 | 0.0 | 0.0 | 0.00 | 0.18 | 0.00 | 64 | 1058.5 |
| 20260905072745 | 69 | 315 | 5.2 | 0.0 | 0.00 | 0.18 | 0.00 | 62 | 1058.5 |
| 20260905072633 | 70 | 337 | 5.2 | 0.0 | 0.00 | 0.18 | 0.00 | 61 | 1058.4 |
| 20260905072520 | 71 | 292 | 15.6 | 0.0 | 0.00 | 0.18 | 0.00 | 60 | 1058.5 |
| 20260905072415 | 72 | 292 | 7.8 | 0.0 | 0.00 | 0.18 | 0.00 | 61 | 1058.5 |
| 20260905072305 | 72 | 292 | 7.8 | 0.0 | 0.00 | 0.18 | 0.00 | 61 | 1058.4 |
| 20260905072157 | 72 | 292 | 8.7 | 0.0 | 0.00 | 0.18 | 0.00 | 62 | 1058.4 |
| 20260905072044 | 72 | 292 | 6.1 | 0.0 | 0.00 | 0.18 | 0.00 | 61 | 1058.5 |
| 20260905071927 | 71 | 337 | 13.9 | 0.0 | 0.00 | 0.18 | 0.00 | 62 | 1058.4 |
| 20260905071818 | 71 | 292 | 5.2 | 0.0 | 0.00 | 0.18 | 0.00 | 62 | 1058.4 |
| 20260905071705 | 71 | 292 | 7.8 | 0.0 | 0.00 | 0.18 | 0.00 | 63 | 1058.4 |
| 20260905071600 | 71 | 270 | 7.8 | 0.0 | 0.00 | 0.18 | 0.00 | 63 | 1058.4 |
| 20260905071448 | 70 | 337 | 13.9 | 0.0 | 0.00 | 0.18 | 0.00 | 64 | 1058.4 |
| 20260905071341 | 70 | 315 | 7.8 | 0.0 | 0.00 | 0.18 | 0.00 | 64 | 1058.4 |
| 20260905071223 | 69 | 337 | 0.0 | 0.0 | 0.00 | 0.18 | 0.00 | 65 | 1058.5 |
| 20260905071118 | 69 | 337 | 7.8 | 0.0 | 0.00 | 0.18 | 0.00 | 66 | 1058.4 |
| 20260905071010 | 68 | 292 | 6.1 | 0.0 | 0.00 | 0.18 | 0.00 | 67 | 1058.4 |
| 20260905070851 | 67 | 315 | 5.2 | 0.0 | 0.00 | 0.18 | 0.00 | 68 | 1058.4 |
| 20260905070736 | 66 | 270 | 4.3 | 0.0 | 0.00 | 0.18 | 0.00 | 69 | 1058.4 |
| 20260905070622 | 65 | 292 | 8.7 | 0.0 | 0.00 | 0.18 | 0.00 | 69 | 1058.4 |
| 20260905070510 | 65 | 315 | 5.2 | 0.0 | 0.00 | 0.18 | 0.00 | 69 | 1058.5 |
| 20260905070357 | 65 | 247 | 5.2 | 0.0 | 0.00 | 0.18 | 0.00 | 69 | 1058.5 |
| 20260905070243 | 65 | 337 | 6.1 | 0.0 | 0.00 | 0.18 | 0.00 | 68 | 1058.5 |
| 20260905070129 | 65 | 315 | 7.0 | 0.0 | 0.00 | 0.18 | 0.00 | 69 | 1058.5 |
| 20260905070016 | 65 | 315 | 13.0 | 0.0 | 0.00 | 0.18 | 0.00 | 68 | 1058.5 |
| 20260905065903 | 66 | 315 | 5.2 | 0.0 | 0.00 | 0.51 | 0.00 | 69 | 1058.4 |
| 20260905065745 | 66 | 315 | 3.5 | 0.0 | 0.00 | 0.51 | 0.00 | 69 | 1058.4 |
| 20260905065638 | 66 | 315 | 7.8 | 0.0 | 0.00 | 0.51 | 0.00 | 70 | 1058.4 |
| 20260905065525 | 66 | 292 | 8.7 | 0.0 | 0.00 | 0.51 | 0.00 | 70 | 1058.5 |
| 20260905065413 | 66 | 292 | 3.5 | 0.0 | 0.00 | 0.51 | 0.00 | 69 | 1058.4 |
| 20260905065307 | 66 | 292 | 5.2 | 0.0 | 0.00 | 0.51 | 0.00 | 68 | 1058.3 |
| 20260905065155 | 66 | 292 | 7.8 | 0.0 | 0.00 | 0.51 | 0.00 | 68 | 1058.4 |
| 20260905065049 | 66 | 270 | 15.6 | 0.0 | 0.00 | 0.51 | 0.00 | 68 | 1058.3 |
| 20260905064943 | 67 | 292 | 10.4 | 0.0 | 0.00 | 0.51 | 0.00 | 68 | 1058.3 |
| 20260905064822 | 67 | 292 | 7.8 | 0.0 | 0.00 | 0.51 | 0.00 | 68 | 1058.3 |
| 20260905064717 | 67 | 292 | 7.8 | 0.0 | 0.00 | 0.51 | 0.00 | 68 | 1058.2 |
| 20260905064612 | 67 | 315 | 4.3 | 0.0 | 0.00 | 0.51 | 0.00 | 68 | 1058.3 |
| 20260905064501 | 68 | 315 | 4.3 | 0.0 | 0.00 | 0.51 | 0.00 | 68 | 1058.2 |
| 20260905064353 | 68 | 270 | 3.5 | 0.0 | 0.00 | 0.51 | 0.00 | 68 | 1058.1 |
| 20260905064232 | 68 | 270 | 11.3 | 0.0 | 0.00 | 0.51 | 0.00 | 67 | 1058.2 |
| 20260905064118 | 68 | 270 | 4.3 | 0.0 | 0.00 | 0.51 | 0.00 | 67 | 1058.2 |
| 20260905063958 | 68 | 292 | 5.2 | 0.0 | 0.00 | 0.51 | 0.00 | 68 | 1058.2 |
| 20260905063821 | 68 | 292 | 3.5 | 0.0 | 0.00 | 0.51 | 0.00 | 68 | 1058.2 |
| 20260905063710 | 68 | 315 | 8.7 | 0.0 | 0.00 | 0.51 | 0.00 | 68 | 1058.1 |
| 20260905063603 | 68 | 337 | 6.1 | 0.0 | 0.00 | 0.51 | 0.00 | 67 | 1058.0 |
| 20260905063500 | 68 | 315 | 1.7 | 0.0 | 0.00 | 0.51 | 0.00 | 67 | 1058.1 |
| 20260905063353 | 68 | 315 | 6.1 | 0.0 | 0.00 | 0.51 | 0.00 | 66 | 1058.0 |
| 20260905063248 | 68 | 270 | 11.3 | 0.0 | 0.00 | 0.51 | 0.00 | 67 | 1058.0 |
| 20260905063127 | 69 | 292 | 7.8 | 0.0 | 0.00 | 0.51 | 0.00 | 67 | 1058.0 |
| 20260905063005 | 69 | 270 | 7.0 | 0.0 | 0.00 | 0.51 | 0.00 | 67 | 1058.0 |
| 20260905062852 | 69 | 315 | 11.3 | 0.0 | 0.00 | 0.51 | 0.00 | 68 | 1057.9 |
| 20260905062739 | 68 | 337 | 0.0 | 0.0 | 0.00 | 0.51 | 0.00 | 68 | 1057.9 |
| 20260905062636 | 68 | 337 | 5.2 | 0.0 | 0.00 | 0.51 | 0.00 | 68 | 1058.0 |
| 20260905062528 | 67 | 337 | 5.2 | 0.0 | 0.00 | 0.51 | 0.00 | 68 | 1058.0 |
| 20260905062418 | 67 | 292 | 11.3 | 0.0 | 0.00 | 0.51 | 0.00 | 69 | 1057.8 |
| 20260905062310 | 66 | 0 | 2.6 | 0.0 | 0.00 | 0.51 | 0.00 | 69 | 1057.9 |
| 20260905062148 | 66 | 315 | 1.7 | 0.0 | 0.00 | 0.51 | 0.00 | 69 | 1057.8 |
| 20260905062036 | 66 | 292 | 4.3 | 0.0 | 0.00 | 0.51 | 0.00 | 68 | 1057.9 |
| 20260905061915 | 66 | 315 | 5.2 | 0.0 | 0.00 | 0.51 | 0.00 | 67 | 1057.8 |
| 20260905061746 | 67 | 315 | 12.2 | 0.0 | 0.00 | 0.51 | 0.00 | 68 | 1057.8 |
| 20260905061624 | 67 | 337 | 9.6 | 0.0 | 0.00 | 0.51 | 0.00 | 69 | 1057.8 |
| 20260905061511 | 67 | 292 | 7.0 | 0.0 | 0.00 | 0.51 | 0.00 | 69 | 1057.8 |
| 20260905061350 | 68 | 315 | 16.5 | 0.0 | 0.00 | 0.51 | 0.00 | 68 | 1057.9 |
| 20260905061236 | 67 | 292 | 5.2 | 0.0 | 0.00 | 0.51 | 0.00 | 68 | 1057.8 |
| 20260905061118 | 67 | 0 | 4.3 | 0.0 | 0.00 | 0.51 | 0.00 | 69 | 1057.7 |
| 20260905061010 | 67 | 315 | 7.8 | 0.0 | 0.00 | 0.51 | 0.00 | 69 | 1057.8 |
| 20260905060849 | 66 | 270 | 3.5 | 0.0 | 0.00 | 0.51 | 0.00 | 69 | 1057.8 |
| 20260905060720 | 66 | 292 | 2.6 | 0.0 | 0.00 | 0.51 | 0.00 | 70 | 1057.8 |
| 20260905060607 | 66 | 315 | 5.2 | 0.0 | 0.00 | 0.51 | 0.00 | 71 | 1057.9 |
| 20260905060502 | 66 | 292 | 4.3 | 0.0 | 0.00 | 0.51 | 0.00 | 71 | 1057.8 |
| 20260905060349 | 66 | 270 | 12.2 | 0.0 | 0.00 | 0.51 | 0.00 | 72 | 1057.8 |
| 20260905060236 | 66 | 270 | 9.6 | 0.0 | 0.00 | 0.51 | 0.00 | 72 | 1057.8 |
| 20260905060123 | 66 | 315 | 3.5 | 0.0 | 0.00 | 0.51 | 0.00 | 73 | 1057.8 |
| 20260905060017 | 65 | 270 | 0.0 | 0.0 | 0.00 | 0.51 | 0.00 | 73 | 1057.8 |
| 20260905055905 | 65 | 315 | 7.0 | 0.0 | 0.00 | 0.71 | 0.00 | 74 | 1057.8 |
| 20260905055800 | 65 | 337 | 1.7 | 0.0 | 0.00 | 0.71 | 0.00 | 74 | 1057.7 |
| 20260905055654 | 65 | 315 | 0.0 | 0.0 | 0.00 | 0.71 | 0.00 | 74 | 1057.6 |
| 20260905055549 | 65 | 315 | 7.8 | 0.0 | 0.00 | 0.71 | 0.00 | 75 | 1057.8 |
| 20260905055429 | 64 | 270 | 0.0 | 0.0 | 0.00 | 0.71 | 0.00 | 75 | 1057.8 |
| 20260905055314 | 64 | 337 | 4.3 | 0.0 | 0.00 | 0.71 | 0.00 | 76 | 1057.8 |
| 20260905055202 | 63 | 315 | 11.3 | 0.0 | 0.00 | 0.71 | 0.00 | 77 | 1057.6 |
| 20260905055056 | 63 | 337 | 2.6 | 0.0 | 0.00 | 0.71 | 0.00 | 77 | 1057.6 |
| 20260905054952 | 63 | 0 | 11.3 | 0.0 | 0.00 | 0.71 | 0.00 | 77 | 1057.7 |
| 20260905054845 | 63 | 292 | 12.2 | 0.0 | 0.00 | 0.71 | 0.00 | 77 | 1057.7 |
| 20260905054724 | 63 | 270 | 5.2 | 0.0 | 0.00 | 0.71 | 0.00 | 77 | 1057.7 |
| 20260905054611 | 63 | 315 | 5.2 | 0.0 | 0.00 | 0.71 | 0.00 | 77 | 1057.6 |
| 20260905054505 | 63 | 270 | 14.8 | 0.0 | 0.00 | 0.71 | 0.00 | 77 | 1057.6 |
| 20260905054400 | 63 | 270 | 0.0 | 0.0 | 0.00 | 0.71 | 0.00 | 77 | 1057.5 |
| 20260905054254 | 63 | 247 | 10.4 | 0.0 | 0.00 | 0.71 | 0.00 | 77 | 1057.6 |
| 20260905054140 | 63 | 22 | 4.3 | 0.0 | 0.00 | 0.71 | 0.00 | 76 | 1057.6 |
| 20260905054010 | 63 | 292 | 4.3 | 0.0 | 0.00 | 0.71 | 0.00 | 76 | 1057.6 |
| 20260905053842 | 64 | 315 | 9.6 | 0.0 | 0.00 | 0.71 | 0.00 | 76 | 1057.6 |
| 20260905053739 | 64 | 292 | 7.8 | 0.0 | 0.00 | 0.71 | 0.00 | 77 | 1057.5 |
| 20260905053633 | 64 | 292 | 6.1 | 0.0 | 0.00 | 0.71 | 0.00 | 77 | 1057.5 |
| 20260905053518 | 64 | 292 | 5.2 | 0.0 | 0.00 | 0.71 | 0.00 | 77 | 1057.5 |
| 20260905053405 | 63 | 315 | 10.4 | 0.0 | 0.00 | 0.71 | 0.00 | 76 | 1057.5 |
| 20260905053247 | 63 | 315 | 3.5 | 0.0 | 0.00 | 0.71 | 0.00 | 76 | 1057.5 |
| 20260905053140 | 63 | 0 | 3.5 | 0.0 | 0.00 | 0.71 | 0.00 | 76 | 1057.4 |
| 20260905053034 | 63 | 292 | 7.8 | 0.0 | 0.00 | 0.71 | 0.00 | 77 | 1057.5 |
| 20260905052921 | 63 | 270 | 3.5 | 0.0 | 0.00 | 0.71 | 0.00 | 77 | 1057.5 |
| 20260905052808 | 63 | 315 | 3.5 | 0.0 | 0.00 | 0.71 | 0.00 | 78 | 1057.4 |
| 20260905052702 | 63 | 270 | 8.7 | 0.0 | 0.00 | 0.71 | 0.00 | 78 | 1057.4 |
| 20260905052556 | 63 | 292 | 7.8 | 0.0 | 0.00 | 0.71 | 0.00 | 78 | 1057.4 |
| 20260905052442 | 63 | 292 | 7.0 | 0.0 | 0.00 | 0.71 | 0.00 | 78 | 1057.4 |
| 20260905052338 | 63 | 292 | 7.8 | 0.0 | 0.00 | 0.71 | 0.00 | 78 | 1057.4 |
| 20260905052223 | 63 | 270 | 0.0 | 0.0 | 0.00 | 0.71 | 0.00 | 79 | 1057.4 |
| 20260905052115 | 63 | 337 | 8.7 | 0.0 | 0.00 | 0.71 | 0.00 | 79 | 1057.4 |
| 20260905052002 | 62 | 292 | 7.0 | 0.0 | 0.00 | 0.71 | 0.00 | 80 | 1057.4 |
| 20260905051845 | 62 | 315 | 4.3 | 0.0 | 0.00 | 0.71 | 0.00 | 79 | 1057.4 |
| 20260905051730 | 62 | 270 | 0.0 | 0.0 | 0.00 | 0.71 | 0.00 | 79 | 1057.4 |
| 20260905051610 | 62 | 292 | 6.1 | 0.0 | 0.00 | 0.71 | 0.00 | 79 | 1057.4 |
| 20260905051447 | 62 | 292 | 1.7 | 0.0 | 0.00 | 0.71 | 0.00 | 79 | 1057.5 |
| 20260905051332 | 62 | 270 | 13.9 | 0.0 | 0.00 | 0.71 | 0.00 | 79 | 1057.4 |
| 20260905051228 | 62 | 270 | 5.2 | 0.0 | 0.00 | 0.71 | 0.00 | 79 | 1057.4 |
| 20260905051120 | 62 | 292 | 7.0 | 0.0 | 0.00 | 0.71 | 0.00 | 80 | 1057.4 |
| 20260905050959 | 62 | 315 | 6.1 | 0.0 | 0.00 | 0.71 | 0.00 | 80 | 1057.4 |
| 20260905050845 | 62 | 292 | 7.0 | 0.0 | 0.00 | 0.71 | 0.00 | 80 | 1057.4 |
| 20260905050733 | 62 | 315 | 9.6 | 0.0 | 0.00 | 0.71 | 0.00 | 80 | 1057.4 |
| 20260905050620 | 62 | 247 | 10.4 | 0.0 | 0.00 | 0.71 | 0.00 | 80 | 1057.4 |
| 20260905050459 | 62 | 270 | 7.0 | 0.0 | 0.00 | 0.71 | 0.00 | 80 | 1057.4 |
| 20260905050353 | 62 | 337 | 9.6 | 0.0 | 0.00 | 0.71 | 0.00 | 79 | 1057.4 |
| 20260905050243 | 62 | 292 | 5.2 | 0.0 | 0.00 | 0.71 | 0.00 | 79 | 1057.4 |
| 20260905050135 | 62 | 292 | 7.0 | 0.0 | 0.00 | 0.71 | 0.00 | 79 | 1057.3 |
| 20260905050014 | 62 | 315 | 0.0 | 0.0 | 0.00 | 0.71 | 0.00 | 78 | 1057.2 |
| 20260905045901 | 63 | 270 | 1.7 | 0.0 | 0.00 | 0.73 | 0.00 | 78 | 1057.3 |
| 20260905045749 | 63 | 247 | 8.7 | 0.0 | 0.00 | 0.73 | 0.00 | 77 | 1057.3 |
| 20260905045641 | 63 | 292 | 11.3 | 0.0 | 0.00 | 0.73 | 0.00 | 77 | 1057.3 |
| 20260905045529 | 63 | 270 | 7.0 | 0.0 | 0.00 | 0.73 | 0.00 | 77 | 1057.2 |
| 20260905045424 | 63 | 292 | 10.4 | 0.0 | 0.00 | 0.73 | 0.00 | 76 | 1057.2 |
| 20260905045311 | 63 | 337 | 8.7 | 0.0 | 0.00 | 0.73 | 0.00 | 76 | 1057.3 |
| 20260905045205 | 63 | 292 | 7.8 | 0.0 | 0.00 | 0.73 | 0.00 | 75 | 1057.3 |
| 20260905045053 | 64 | 0 | 3.5 | 0.0 | 0.00 | 0.73 | 0.00 | 75 | 1057.3 |
| 20260905044948 | 64 | 315 | 11.3 | 0.0 | 0.00 | 0.73 | 0.00 | 75 | 1057.3 |